ECMWFFLT1_con_mucape_000.txt.gz
CAPE
218 32 1 0 0 8 20 6 0 21 118 158 144 206 266 218 596 574 561 372 100 47 228 638 1253 1644 1437 1251 1097 1024 991 963 675 670 598 608 548 507 450 349 436 454 448 543 582 622 820 854 937 758 580 585 534 479 566 696 909 1161 1020 796 613 698 879
81 2 6 5 2 7 8 7 0 21 0 97 116 164 152 370 540 390 322 196 94 50 269 507 1115 1326 1333 1312 1074 916 1196 989 756 596 508 412 520 504 572 492 470 565 730 699 594 693 945 1100 1056 698 611 663 536 385 356 662 590 478 616 482 537 848 944
0 0 0 0 0 0 0 0 2 23 18 93 196 143 141 351 325 144 48 58 54 22 133 184 352 873 1263 1246 1069 822 951 914 724 601 537 415 478 474 496 410 364 476 611 708 715 784 994 1066 891 675 688 728 576 488 434 405 834 828 578 344 684 683 652
0 0 0 0 0 0 0 0 34 2 28 53 58 138 136 166 56 2 2 6 18 5 28 24 38 409 1029 1158 1028 940 1002 996 858 729 711 688 693 734 786 756 696 755 807 830 866 883 876 948 976 924 820 764 763 894 821 564 560 733 632 423 440 632 638
0 0 0 0 0 0 0 0 1 0 0 8 44 250 86 17 0 0 0 39 0 0 0 0 12 260 752 800 812 1058 1144 988 808 792 887 906 821 632 509 494 530 613 701 774 884 916 799 688 795 942 805 533 550 630 728 594 482 543 522 474 368 313 557
0 0 0 0 0 0 0 0 0 0 0 9 34 55 18 19 4 13 3 0 2 6 0 0 4 188 376 393 636 818 714 600 540 552 611 636 560 516 502 481 479 536 592 606 659 654 632 661 628 517 522 646 628 596 703 550 408 539 681 630 561 594 703
0 0 0 0 0 0 0 0 0 0 0 20 72 314 136 67 36 22 9 6 0 0 0 0 2 318 429 315 394 365 332 323 206 199 328 494 505 476 427 424 472 507 624 646 573 546 538 468 435 455 540 606 695 761 693 620 536 436 517 564 566 534 566
0 0 0 0 0 0 0 0 0 18 154 359 140 214 408 371 303 49 40 11 3 0 0 0 58 373 355 282 153 106 117 113 78 74 138 304 304 261 259 323 416 541 694 715 576 471 470 499 575 656 636 594 513 607 588 491 537 594 425 468 462 445 459
0 0 0 0 0 0 0 4 6 18 146 385 388 412 480 442 360 198 55 28 16 0 0 7 66 305 325 130 66 60 52 70 40 32 69 90 71 67 106 253 443 601 713 660 548 626 659 698 689 630 548 482 424 442 370 332 370 433 478 533 555 521 500
0 0 0 0 0 0 0 51 46 195 238 374 360 408 481 476 362 146 67 63 26 5 0 36 80 236 203 99 15 0 0 1 5 6 4 11 25 52 108 263 437 667 788 685 595 654 694 758 716 629 551 440 465 361 371 448 378 397 366 421 444 354 308
0 0 0 0 45 26 25 109 91 62 38 148 348 399 512 512 322 288 289 220 187 31 2 48 135 202 138 79 6 0 0 0 13 23 11 10 36 87 172 350 512 745 882 766 704 752 806 790 645 556 439 414 469 486 359 202 215 246 404 415 379 442 386
0 0 0 10 27 16 56 50 29 34 263 364 282 294 415 418 403 393 354 333 241 30 13 59 174 234 88 58 4 0 0 5 19 40 146 86 125 119 205 364 702 849 956 897 967 1042 871 732 672 571 459 472 579 401 341 382 176 201 379 378 306 326 293
0 0 0 0 0 4 20 40 93 230 293 210 423 450 443 432 404 419 435 342 272 28 39 146 163 92 62 74 32 206 174 336 384 351 299 235 179 134 240 352 603 971 1066 1119 1272 1227 1051 834 725 540 455 454 492 532 335 356 254 214 242 332 280 246 198
220 0 16 0 6 34 34 26 38 132 163 493 580 548 514 366 375 415 406 341 241 62 90 268 115 6 24 84 109 250 276 528 601 586 483 353 292 238 238 354 567 811 1015 1224 1294 1270 1106 814 670 430 285 290 384 508 476 354 318 273 212 243 337 365 367
6 2 5 0 0 0 8 11 6 57 155 512 471 428 360 251 117 165 150 105 60 12 1 139 116 21 22 72 94 184 384 732 878 778 555 382 248 187 207 269 336 505 807 1046 1136 1218 1115 828 703 384 224 190 269 316 392 461 425 486 486 374 280 256 283
0 0 0 0 0 0 0 0 3 34 141 225 207 171 132 65 68 82 97 50 11 0 1 230 63 2 16 82 122 240 592 972 981 798 467 260 225 112 159 252 298 452 706 958 1106 1110 975 847 738 434 276 208 192 225 297 392 323 229 217 175 214 218 239
0 0 0 0 0 0 0 0 0 29 59 95 125 110 69 32 58 42 32 26 5 0 0 0 2 2 15 55 82 346 786 1130 1042 681 420 327 469 355 170 242 328 400 522 672 754 766 754 823 744 569 279 201 148 168 230 290 281 223 186 66 35 118 191
0 0 0 0 0 0 0 0 0 1 4 23 48 41 3 35 26 9 0 0 0 0 10 8 4 24 22 34 94 496 894 1196 1194 888 636 543 630 630 424 267 316 288 270 330 419 542 694 696 646 570 249 184 163 183 233 252 94 24 2 5 1 54 224
0 0 0 0 0 0 0 0 0 2 6 6 14 1 5 0 0 0 0 0 0 0 26 39 40 35 65 66 112 458 742 1124 1172 967 797 730 798 766 664 456 325 269 208 191 335 568 486 459 504 505 222 157 222 176 132 124 0 4 30 53 45 62 196
0 0 0 0 0 0 0 0 2 7 4 10 18 10 23 0 0 0 0 2 2 7 8 7 2 13 83 507 454 343 351 611 663 584 589 755 952 926 745 563 378 240 151 264 358 238 192 303 446 444 234 186 247 189 131 188 5 0 6 28 34 74 165
0 0 0 0 0 0 0 0 0 0 20 41 76 99 16 0 34 96 22 2 4 27 1 0 0 0 62 518 258 50 30 14 26 85 408 784 1046 1034 837 614 499 380 253 157 160 181 224 410 488 422 292 221 273 292 151 176 8 6 10 9 32 90 146
0 0 2 0 0 0 0 0 0 8 16 157 466 183 1 13 3 6 0 0 0 0 0 0 0 0 0 106 44 6 6 13 26 95 363 720 1025 1086 936 686 534 358 212 227 227 347 454 618 316 402 247 172 300 297 127 90 0 3 5 9 23 109 147
0 0 0 0 0 0 0 0 0 0 280 188 43 44 62 33 120 93 0 0 0 2 0 0 3 4 12 226 10 0 0 0 42 170 340 622 922 1051 985 748 544 329 220 172 202 363 630 606 250 368 203 178 233 210 251 116 24 0 0 1 14 102 140
0 0 0 0 0 0 1 2 0 78 271 38 18 60 82 155 429 348 388 19 0 0 0 2 2 1 49 68 3 0 0 0 70 113 195 507 824 1015 1013 792 491 278 186 156 157 229 534 536 290 350 192 210 157 189 271 214 70 0 0 0 8 36 114
0 0 0 0 0 0 1 2 0 289 416 12 87 64 84 134 308 374 458 390 330 161 59 22 28 43 226 189 0 0 1 26 42 67 204 601 863 1086 1040 755 498 300 99 42 64 190 454 505 412 365 168 178 214 256 248 278 123 25 0 0 5 11 87
0 0 0 0 0 0 1 59 572 172 19 38 36 40 170 319 340 465 482 496 536 570 556 493 411 387 119 8 1 44 145 31 106 150 640 765 1046 1192 1075 852 421 38 28 30 130 200 343 413 360 393 263 272 208 222 273 418 151 82 26 0 2 2 8
0 0 0 0 18 482 5 1 3 0 0 0 10 146 384 448 502 515 886 1036 966 904 807 740 672 582 554 411 248 56 17 28 66 438 928 1064 1230 1342 1041 471 58 36 53 153 224 238 254 851 672 634 364 278 285 233 332 517 228 156 62 18 0 2 4
0 0 0 74 656 261 0 0 0 1 15 8 84 309 333 326 92 312 306 709 609 493 443 529 804 794 550 356 92 441 139 131 161 664 1040 1388 1482 1220 718 210 68 154 238 259 339 249 16 202 734 841 520 310 344 228 109 388 304 246 106 62 26 5 0
0 0 25 256 154 377 2 0 0 1 4 21 64 210 286 23 110 281 554 505 459 464 576 852 1042 1025 595 553 554 500 390 54 160 351 747 1180 1120 818 477 360 354 191 319 328 373 259 9 12 18 44 128 473 276 324 167 188 224 166 148 98 72 50 37
0 0 0 0 0 36 110 0 0 0 0 0 8 4 44 95 258 446 628 425 376 445 624 772 958 901 759 685 629 308 0 98 263 3 0 25 402 577 450 385 361 175 285 268 391 151 17 0 0 0 1 218 401 240 273 342 247 142 127 100 102 90 107
0 0 0 0 0 220 134 0 0 0 0 0 0 18 68 270 320 639 911 672 624 703 816 996 1128 1112 771 686 302 4 25 58 21 8 0 0 29 275 315 244 194 77 26 91 206 86 35 0 0 0 0 182 346 151 232 499 280 160 121 120 110 173 125
0 0 0 0 10 298 25 4 3 2 4 17 24 164 224 277 292 312 438 570 688 721 632 646 864 1048 727 113 20 0 18 50 78 0 0 0 5 52 80 157 66 1 0 6 4 64 49 11 1 0 0 19 222 191 236 359 170 209 332 430 424 511 228
0 0 0 0 6 341 1 1 6 34 92 194 213 396 504 476 418 426 600 974 922 352 250 655 1032 1056 446 12 0 0 99 480 176 142 0 0 0 0 0 0 0 0 0 0 0 3 14 5 12 0 0 14 47 254 304 286 280 420 457 444 495 759 497
0 0 0 0 82 170 0 0 2 96 223 266 346 539 728 625 590 681 784 716 106 44 216 849 990 548 62 0 2 161 50 56 1074 394 0 0 0 0 0 0 0 0 0 0 0 3 2 0 0 0 0 0 30 211 303 263 360 314 268 293 378 540 665
3 23 45 63 241 135 4 10 51 233 272 322 306 444 552 629 664 691 470 531 305 38 566 746 1050 367 0 6 0 92 670 0 8 6 0 0 0 0 0 0 2 0 0 0 1 0 0 0 0 0 0 0 11 248 350 353 170 30 0 0 10 10 193
78 119 120 178 228 234 260 253 221 191 135 286 428 438 610 686 634 547 646 548 90 129 168 297 279 218 23 11 0 15 472 33 2 0 0 4 0 0 0 456 2 0 0 0 0 0 0 0 0 0 0 0 0 24 68 24 8 0 0 0 0 0 0
86 94 94 215 242 264 232 312 346 347 353 355 325 451 657 750 795 848 656 419 78 202 196 353 432 158 0 0 0 38 47 6 2 4 18 2 0 0 6 4 0 0 0 0 0 0 0 0 0 0 0 0 0 6 0 0 0 0 0 0 0 0 0
69 92 107 152 217 260 317 312 256 330 305 275 258 486 589 642 742 679 512 446 226 464 95 90 236 198 120 12 0 434 1556 34 72 170 28 0 0 1 21 0 0 0 0 0 0 0 0 0 0 0 0 0 0 0 0 0 0 0 0 0 0 0 0

ECMWFFLT1_con_mucape_006.txt.gz
CAPE
949 1204 1200 666 22 4 0 1 0 0 0 3 0 3 30 87 57 0 0 0 0 0 0 0 0 0 0 0 14 84 80 78 497 481 400 210 210 189 156 204 331 304 303 304 293 314 350 435 549 630 684 726 776 779 776 769 775 866 812 638 676 724 756
1005 972 854 502 100 0 0 0 0 0 0 0 0 4 6 23 26 10 0 0 0 0 0 0 7 0 0 0 0 18 12 25 147 385 277 146 130 105 94 215 263 316 322 335 343 365 439 522 622 744 842 907 860 829 784 734 693 648 618 660 683 708 728
1003 803 562 356 48 0 0 0 0 0 0 1 6 0 5 20 16 6 1 15 0 0 0 0 0 0 0 0 1 9 0 0 49 50 76 57 54 92 144 198 246 238 286 308 374 473 606 673 720 790 836 930 908 896 851 825 794 754 654 652 629 645 620
930 711 547 386 134 0 0 0 0 0 0 0 0 2 0 4 2 0 0 0 0 0 0 0 0 0 0 0 2 0 1 0 0 2 2 1 4 42 80 94 69 86 119 167 249 345 539 744 701 657 788 665 689 690 713 752 739 704 629 601 597 602 586
932 682 575 380 216 91 0 0 0 0 0 0 0 2 0 0 0 0 0 0 0 0 0 0 0 0 0 0 0 0 12 0 0 0 0 0 0 0 2 12 30 50 82 169 263 407 440 492 522 528 546 596 658 672 628 651 654 645 558 511 458 498 516
885 643 564 362 162 109 0 0 0 0 0 0 0 0 0 0 0 0 0 0 4 0 0 0 0 0 0 0 0 0 0 0 0 0 0 0 0 0 0 0 5 21 46 218 313 413 505 553 551 538 506 566 626 616 632 648 682 645 616 588 513 507 503
797 635 544 333 150 44 0 0 0 0 0 0 0 0 24 0 0 0 0 0 0 0 0 0 0 0 0 0 0 0 0 0 0 0 0 0 0 0 0 0 13 8 10 155 395 487 555 569 586 563 540 581 712 722 696 666 600 602 558 525 528 530 565
755 623 510 313 102 0 0 0 0 0 0 0 0 0 13 0 0 0 0 0 0 0 0 0 0 0 0 0 0 0 0 0 0 0 0 0 0 0 0 0 0 0 24 84 286 531 607 660 656 647 666 716 765 790 751 681 626 519 527 458 392 400 398
723 617 442 271 81 0 0 0 0 0 0 0 0 0 0 0 0 0 0 0 0 0 0 0 0 0 0 0 0 0 0 0 0 0 0 0 0 0 0 0 0 1 22 117 226 427 524 640 760 831 879 938 958 919 838 742 649 537 449 428 346 195 310
680 568 370 210 175 0 0 0 0 0 0 0 0 0 0 0 0 0 0 0 0 0 0 0 0 0 0 0 0 0 0 0 0 0 0 0 0 0 0 0 0 8 44 160 299 447 590 697 754 830 944 1010 1017 981 897 706 684 524 451 364 270 229 182
610 410 348 237 102 0 0 0 0 0 0 0 0 0 0 0 0 0 0 0 0 0 0 0 0 0 0 0 0 0 0 0 0 0 0 0 0 0 2 3 2 24 160 210 285 415 590 786 916 957 1010 1080 1118 1064 898 803 729 578 427 257 268 219 166
414 381 324 193 139 130 118 0 0 0 0 0 0 0 0 0 0 0 0 0 0 0 0 0 0 0 0 0 0 0 0 0 0 0 0 0 4 63 22 25 24 30 43 198 313 449 624 771 904 1066 1059 1126 1133 988 887 870 722 562 452 378 106 130 148
374 352 297 222 157 124 107 37 18 0 0 0 0 0 0 0 0 0 0 0 0 0 0 0 0 0 0 0 0 0 0 0 0 0 0 0 0 372 345 82 125 280 284 167 289 404 594 764 823 897 972 1068 1081 1060 975 750 654 580 507 318 32 22 58
368 338 261 187 122 98 51 60 22 0 0 0 0 0 0 0 0 0 0 0 0 0 0 0 0 0 0 0 0 0 0 0 0 0 0 1 15 274 436 350 126 372 456 448 262 337 524 634 628 590 687 817 989 982 931 794 664 644 525 226 14 4 2
342 312 211 22 164 186 63 36 4 0 0 0 0 0 0 0 0 0 0 0 0 0 0 0 0 0 0 0 0 0 0 0 0 0 0 8 24 54 114 11 0 437 559 577 531 457 518 499 472 483 538 653 808 858 803 666 597 644 484 164 20 5 0
329 252 0 155 204 139 34 4 0 0 0 0 0 0 0 0 0 0 0 0 0 0 0 0 0 0 0 0 0 0 0 0 0 0 0 0 60 97 64 10 6 46 476 639 627 503 396 431 532 622 629 660 696 727 692 577 632 661 521 260 52 12 6
283 0 20 176 188 162 8 0 0 0 0 0 0 0 0 0 0 0 0 0 0 0 0 0 0 0 0 0 0 0 0 0 0 0 0 2 19 38 31 25 36 67 272 570 595 471 358 508 494 487 553 586 620 719 688 591 613 501 458 249 68 16 2
65 0 114 192 172 0 0 0 0 0 0 0 0 0 0 0 0 0 0 0 0 0 0 0 0 0 0 0 0 0 0 0 0 0 0 0 3 6 1 6 36 101 439 529 492 427 433 416 446 448 500 569 688 826 738 580 426 311 358 186 40 0 0
0 25 196 155 36 0 0 0 0 0 0 0 0 0 0 0 0 0 0 0 0 0 0 0 0 0 0 0 0 0 0 0 0 0 0 0 0 0 0 2 63 171 431 484 462 400 357 307 276 334 424 539 674 819 742 541 370 302 288 109 0 0 0
0 108 158 167 0 0 0 0 0 0 0 0 0 0 0 0 0 0 0 0 0 0 0 0 0 0 0 0 0 0 0 0 0 0 0 0 0 0 0 11 102 322 452 411 292 176 134 159 173 268 399 581 762 772 582 545 349 165 174 60 0 16 0
0 24 160 125 0 0 0 0 0 0 0 0 0 0 0 0 0 0 0 0 0 0 0 0 0 0 0 0 0 0 0 0 0 0 0 0 0 0 1 20 93 429 520 441 306 210 146 109 166 278 596 743 781 622 576 543 188 4 168 84 10 35 1
0 44 43 0 0 0 0 0 0 0 0 0 0 0 0 0 0 0 0 0 0 0 0 0 0 0 0 0 0 0 0 0 0 0 0 0 0 0 3 26 261 426 500 498 316 146 36 49 147 354 516 604 596 512 439 405 198 6 212 132 9 8 22
0 0 0 0 0 0 0 0 0 0 0 0 0 0 0 0 0 0 0 0 0 0 0 0 0 0 0 0 0 0 0 0 0 0 0 0 0 0 8 137 362 396 440 413 296 105 36 38 65 237 423 608 712 595 463 375 280 202 344 213 3 39 17
0 0 0 0 0 0 0 0 0 0 0 0 0 0 0 0 0 0 0 0 0 0 0 0 0 0 0 0 0 0 0 0 0 0 0 0 0 0 38 134 249 282 403 350 206 131 170 32 114 346 502 683 622 525 462 465 367 328 531 322 75 71 8
0 0 0 0 0 0 0 0 0 0 2 0 0 0 0 0 0 0 0 2 4 0 0 0 0 0 0 0 0 0 0 202 220 0 0 0 0 10 147 286 384 540 201 19 3 207 291 178 219 240 251 297 420 462 566 562 384 343 452 308 95 98 63
0 0 2 0 0 0 0 0 0 6 0 0 0 0 1 3 0 32 19 22 11 6 9 18 278 9 320 352 168 0 331 364 376 199 41 5 3 40 170 414 546 116 3 2 6 56 96 28 18 19 24 39 128 320 470 467 397 401 373 240 206 150 110
0 0 0 0 0 143 0 0 0 0 2 5 12 5 0 3 3 27 168 180 48 38 37 39 14 64 362 380 394 386 371 400 454 136 18 6 28 130 507 361 50 8 3 0 0 0 5 6 5 13 2 1 6 60 287 495 486 539 306 286 277 309 170
0 0 0 2 62 200 0 0 0 0 2 4 10 2 0 10 26 72 50 98 231 249 135 83 214 348 308 275 295 299 312 465 486 82 59 142 239 180 86 7 0 1 2 0 0 0 0 0 0 0 0 0 0 11 88 264 437 462 406 330 335 390 246
0 0 0 0 0 356 62 0 0 0 3 4 0 0 72 117 134 150 169 182 181 124 74 24 117 105 108 278 315 332 409 590 467 260 143 122 102 28 40 4 0 0 0 0 0 0 0 0 0 0 0 0 0 0 16 66 214 307 368 259 271 494 450
0 0 0 0 0 14 425 6 0 0 0 2 0 0 143 142 149 131 146 126 135 32 5 10 10 46 284 382 434 524 658 684 304 72 33 25 8 2 0 0 0 2 0 0 0 0 0 0 0 0 0 0 0 0 1 8 50 95 205 218 266 366 591
0 0 0 0 0 2 304 97 166 0 68 124 22 92 144 162 117 188 288 176 142 50 44 50 223 391 413 352 356 443 690 640 164 0 0 0 0 0 0 0 0 10 0 0 0 0 0 0 0 0 0 0 0 0 0 1 29 154 112 60 1 0 361
0 0 0 0 0 1 160 269 266 223 202 110 0 80 125 80 8 86 155 110 98 84 40 52 306 383 417 201 187 312 626 416 0 0 0 0 0 0 0 0 0 0 0 0 0 0 0 0 0 0 0 0 0 0 0 0 38 89 11 0 0 0 0
0 0 0 0 0 12 237 276 272 240 204 3 0 0 12 0 0 23 44 140 1 90 5 209 332 324 238 144 168 354 504 341 1 11 2 0 0 0 0 0 0 0 0 0 0 0 0 0 0 0 0 0 0 0 0 0 29 15 0 0 0 0 0
0 0 0 0 0 8 0 0 0 0 0 0 0 0 0 0 0 0 0 0 0 136 347 369 361 188 140 204 348 502 494 322 686 550 3 1 0 0 0 0 0 0 0 0 0 0 0 0 0 0 0 0 0 0 0 0 0 0 0 0 0 0 0
0 0 0 0 0 72 0 0 0 0 0 0 0 0 0 0 0 0 0 4 96 335 354 306 295 592 581 581 670 720 488 177 248 734 412 282 0 0 0 0 0 0 0 0 0 0 0 0 0 0 0 0 0 0 0 0 0 0 0 1 0 0 0
0 0 0 0 0 0 0 0 0 0 0 0 0 0 0 0 0 0 0 0 274 322 349 351 172 7 8 24 318 545 147 370 14 0 6 0 0 0 0 406 0 0 0 0 0 0 0 0 0 0 0 0 0 1 0 0 0 0 0 0 0 0 0
0 0 0 0 0 0 0 0 0 0 0 0 0 0 0 0 0 0 3 13 208 348 345 249 19 159 138 118 49 202 219 102 50 0 0 0 0 0 21 14 0 0 0 0 0 0 0 0 0 0 0 1 0 0 0 0 0 15 21 2 0 0 0
0 0 0 0 0 0 0 0 0 0 0 0 0 0 0 0 0 0 0 0 1 0 11 18 56 98 85 16 0 119 704 262 35 45 0 0 0 0 3 0 2 3 0 0 0 0 0 0 0 0 0 0 0 0 0 0 0 4 20 25 13 0 0

ECMWFFLT1_con_mucape_009.txt.gz
CAPE
1514 1756 1966 1882 1565 1230 855 736 738 760 1112 1278 1366 1170 1063 1192 1129 975 662 619 484 490 416 433 422 558 315 655 1184 1327 1457 1318 1061 970 970 780 454 267 169 168 200 232 316 281 329 376 390 520 599 714 878 985 1125 1193 1248 1305 1327 1281 1336 1488 1456 1178 1321
1417 1490 1678 1693 1534 1109 843 773 903 776 964 1108 1197 1162 1062 1250 1213 853 720 608 507 345 343 435 412 322 620 692 1250 1086 1042 1211 1094 1009 1023 1064 750 380 126 138 175 182 238 284 298 322 412 480 646 771 782 849 994 1011 1100 1156 1204 1250 1214 1226 1262 1335 1395
1360 1369 1497 1430 1484 1200 842 743 780 772 888 885 858 864 941 1279 1332 1130 854 639 672 610 560 497 448 446 694 960 912 910 810 958 1016 878 692 618 588 508 259 136 189 203 196 219 339 317 436 529 686 798 755 821 824 946 903 868 821 842 915 960 962 1000 1098
1374 1293 1385 1389 1357 1278 876 704 731 586 658 816 858 801 1120 1477 1542 1321 1035 781 479 514 457 372 410 503 618 737 856 844 780 834 828 710 546 505 428 504 524 481 406 347 362 390 407 366 468 624 654 713 741 788 1020 1112 1108 1061 970 844 752 696 696 786 766
1454 1334 1231 1109 1213 1277 765 643 724 650 522 594 864 1256 1309 1352 1308 1042 830 799 576 414 388 414 446 608 744 792 778 790 788 788 708 604 488 486 528 553 493 400 394 386 457 543 568 533 636 660 664 739 753 1077 1122 1112 1185 1112 961 905 816 761 744 691 756
1484 1357 1117 947 1028 1051 674 538 491 422 422 470 824 916 821 623 702 548 574 666 653 584 589 530 500 766 706 1037 793 822 760 776 494 411 432 454 461 514 467 410 392 384 463 680 551 605 636 760 732 795 1000 1107 1072 1115 1090 994 941 882 790 739 767 708 664
1472 1334 1048 854 844 837 685 538 378 307 382 676 857 817 528 417 502 431 402 413 471 651 608 323 336 432 444 750 849 859 837 603 578 502 417 460 490 601 564 540 494 481 525 599 704 635 670 751 888 1085 1111 1200 1146 1120 1068 1032 946 914 897 820 751 729 720
1395 1207 967 888 867 780 610 545 382 304 352 637 616 334 342 487 554 426 321 243 277 217 194 144 325 383 401 558 513 620 530 440 357 372 428 526 809 819 761 632 596 563 605 664 829 873 757 858 943 996 1022 952 1083 1116 1134 1139 1149 1012 948 691 655 678 625
1252 1160 1082 1049 910 703 502 541 376 437 612 649 647 753 858 934 592 525 457 394 354 301 282 147 100 331 532 342 431 600 670 527 390 413 619 726 886 769 675 515 579 650 637 690 657 793 960 950 994 1098 965 989 1021 1086 1143 1329 1241 1204 1055 687 540 560 574
1068 1096 1154 1149 1033 723 572 324 448 530 746 859 901 984 972 964 932 768 588 439 401 332 338 274 120 102 254 367 352 554 571 470 466 529 494 474 745 792 700 538 682 852 886 883 904 921 962 1113 1098 1080 1073 1153 1234 1229 1079 1108 970 1079 1101 955 744 538 499
878 1005 1175 1194 1112 779 572 310 268 577 840 944 970 1017 1181 1135 1122 920 924 732 469 424 292 298 310 188 199 302 220 260 557 378 394 351 409 550 396 452 446 534 604 751 911 962 1016 986 970 1033 1047 998 1148 1244 1267 1209 978 708 746 791 838 740 705 593 438
636 863 1120 1218 1096 774 574 382 594 742 889 947 1013 1122 1242 1291 1208 1181 1062 990 728 517 464 343 298 121 120 82 111 354 306 403 476 413 426 443 477 599 757 998 1200 1124 906 962 928 1038 1116 1160 1115 1159 1226 1340 1384 1249 1153 927 925 1018 883 855 860 582 455
484 687 938 1151 1068 772 566 447 600 770 925 923 1074 1254 1192 1130 1166 1122 1224 1102 835 632 562 623 604 568 301 134 135 421 344 309 470 561 406 620 702 804 760 986 944 803 815 832 906 955 1145 1273 1282 1252 1331 1378 1395 1323 1376 1432 1370 1258 1011 964 850 558 512
356 506 735 959 964 744 484 480 700 813 938 976 1220 1223 1107 1063 1152 1248 1256 1086 970 758 542 516 667 567 320 220 376 470 286 379 604 653 711 729 918 1047 1230 1268 1294 1228 1158 1090 1031 1065 1226 1315 1404 1378 1365 1414 1422 1312 1320 1437 1384 1313 1088 904 805 630 557
333 393 566 760 809 682 561 670 723 925 968 1087 1226 1136 1019 991 1023 1114 1160 1035 1152 841 655 756 762 558 365 370 410 403 467 631 666 682 755 856 992 1138 1244 1264 1267 1216 1127 1163 1262 1257 1312 1317 1326 1419 1469 1494 1520 1528 1404 1362 1406 1299 1040 813 693 668 435
392 362 496 689 722 552 628 690 887 998 1105 1212 1195 1147 1046 1061 1133 1141 1101 977 781 919 813 851 675 466 362 310 316 432 628 714 743 794 932 1035 1147 1183 1166 1042 1089 1025 1065 1192 1226 1311 1410 1517 1506 1412 1362 1387 1454 1574 1588 1484 1487 1170 597 294 501 490 300
474 395 465 665 636 572 594 724 918 1092 1122 1226 1236 1272 1184 1211 1218 1318 999 852 829 966 902 681 524 432 340 353 396 548 699 738 926 979 1031 1209 1216 1142 1095 986 932 985 1220 1372 1479 1571 1558 1586 1528 1380 1328 1325 1414 1504 1597 1476 1427 865 430 225 222 279 180
521 497 440 548 556 620 622 691 877 1025 1139 1297 1457 1356 1266 1246 1337 1396 1176 1053 986 808 698 513 310 236 311 302 440 629 702 856 992 1002 1096 1262 1232 1078 918 764 856 1080 1325 1416 1586 1681 1688 1724 1593 1487 1430 1361 1406 1480 1660 1598 1256 820 405 216 203 155 81
567 595 532 566 700 658 642 680 856 1070 1217 1502 1412 1337 1256 1382 1368 1318 1359 1331 1245 974 673 457 300 397 385 400 514 604 828 921 894 912 1031 1210 1186 930 759 785 1001 1215 1384 1429 1462 1622 1755 1598 1539 1524 1521 1534 1626 1672 1669 1652 1439 758 368 173 178 180 83
594 619 584 584 659 597 678 882 930 1056 1286 1521 1420 1158 1298 1328 1412 1402 1477 1325 1102 755 714 613 606 516 365 448 598 780 898 884 884 870 1072 1154 1020 778 790 1028 1160 1260 1293 1426 1641 1734 1702 1702 1698 1711 1759 1736 1807 1816 1755 1800 1500 724 334 153 218 217 119
586 617 589 642 712 663 864 1024 1106 1170 1194 1182 1099 1027 1103 1222 1180 1251 1134 937 732 666 652 616 608 560 498 486 623 838 814 813 899 937 1068 1061 917 849 972 1185 1282 1348 1376 1442 1556 1561 1526 1598 1496 1500 1527 1681 1746 1728 1710 1759 1188 579 328 216 342 328 129
516 558 690 683 738 771 1074 1063 1092 1067 1172 1142 1002 922 843 1038 1002 887 982 977 782 761 614 610 577 530 602 604 652 762 850 833 852 1070 1066 933 961 1102 1158 1297 1440 1429 1465 1434 1391 1538 1644 1648 1640 1592 1545 1566 1707 1678 1520 1325 1160 588 342 344 538 455 242
358 494 632 757 798 1017 1215 1223 1243 1227 1351 1158 927 884 876 857 874 862 1021 924 742 754 664 525 544 600 694 718 804 926 999 994 918 1022 1082 1022 1065 1078 960 1088 1223 1310 1434 1350 1233 1358 1530 1571 1442 1610 1546 1520 1476 1470 1288 1172 1400 804 389 319 480 356 340
214 408 647 659 751 882 1095 968 917 916 828 838 812 834 926 915 802 959 1101 1024 950 760 676 684 671 784 877 869 967 1123 1177 1085 960 970 1055 1158 1100 831 790 826 1182 1357 1378 1242 1035 965 1012 1138 1345 1598 1708 1469 1306 952 843 818 1179 978 528 285 348 341 262
44 66 261 390 426 574 683 832 810 690 708 749 805 854 920 930 792 915 1036 1120 952 804 825 920 1017 1033 1009 1020 1053 1108 1075 1003 1048 1012 1025 1246 1109 938 852 936 1047 1110 1256 1076 984 1043 1320 1368 1418 1445 1397 1063 1114 905 664 710 954 1218 682 341 326 360 261
232 183 252 379 408 626 955 892 742 708 727 782 917 1006 928 794 837 866 1063 1044 939 965 1010 1115 1236 1461 1249 1036 944 906 935 971 1050 1198 1266 1382 1359 1242 1104 1129 1059 933 736 924 840 774 795 1201 1277 1382 1132 986 1276 926 941 919 1016 1452 914 469 372 394 322
418 374 376 172 208 360 457 670 731 1002 1124 1040 1161 967 724 677 837 1070 1292 1436 1372 1207 1174 1326 1484 1242 1029 980 892 884 992 1114 1214 1359 1504 1508 1258 1052 993 1156 971 887 1033 736 673 941 1206 1091 1030 1026 1253 1105 1150 1061 938 702 585 1055 875 651 518 410 315
152 96 144 313 467 746 623 447 687 849 850 1108 851 656 661 794 976 1266 1454 1469 1386 1406 1362 1546 1232 1046 1024 1101 1151 1127 1151 1289 1420 1474 1449 1584 1272 1210 1249 1258 1072 841 1020 856 936 1072 1127 1204 1062 1001 1128 1221 1238 1247 1108 944 377 817 839 502 336 239 250
280 320 234 292 423 637 685 717 668 713 798 659 436 505 590 701 1068 1334 1398 1349 1445 1542 1540 1284 1054 1026 1117 1176 1138 1229 1298 1475 1576 1577 1624 1483 1274 1234 1015 1109 1088 1272 1286 1214 1084 1074 986 950 990 838 710 800 932 1218 1255 1114 979 477 806 391 0 0 0
705 629 564 359 238 510 734 993 1055 958 860 298 471 535 629 810 1134 1364 1363 1392 1590 1468 1140 876 849 991 1064 1201 1423 1510 1525 1498 1517 1740 1654 1297 1335 1078 1032 988 1035 1196 1364 1112 1036 876 803 803 880 864 606 539 568 931 1014 1190 1034 960 104 68 0 0 0
735 746 681 536 260 379 458 797 1214 1127 844 610 672 799 856 817 1087 1328 1330 1550 1561 1108 940 912 1038 1259 1287 1402 1493 1641 1468 1363 1408 1581 1247 927 1074 885 850 749 927 967 1306 1160 932 936 792 814 603 752 700 695 767 834 875 890 914 985 504 0 0 0 0
547 577 387 338 371 306 306 492 626 714 870 879 698 768 771 863 925 1200 1374 1497 1092 999 911 1032 1104 1132 1163 1265 1400 1381 1205 1084 1250 1449 994 786 848 861 1008 691 634 737 1054 1032 865 838 830 711 536 501 478 589 476 674 625 652 890 916 432 25 0 0 0
1028 579 640 724 595 350 399 536 555 690 735 783 663 459 422 680 682 920 1178 916 856 816 989 997 968 1024 1287 1462 1285 1224 1072 1058 1110 1026 548 604 722 683 672 766 740 907 942 873 714 613 537 398 381 351 262 378 354 418 514 602 622 375 0 0 0 0 0
1038 843 524 201 139 187 365 588 734 739 815 796 864 452 313 370 541 544 573 401 448 442 677 752 936 1128 1242 1086 950 969 1110 1198 1116 928 355 341 306 232 414 472 437 711 758 587 438 469 407 306 359 176 94 86 94 170 285 359 246 6 0 0 0 0 0
1001 784 464 315 199 237 466 726 721 872 879 795 423 182 174 179 160 181 376 466 443 681 890 1131 1232 1098 1065 814 816 688 1072 1205 1030 976 468 406 717 841 972 698 620 758 163 0 1 4 38 164 15 0 0 0 0 0 2 1 0 0 0 0 0 0 1
858 474 333 128 52 168 435 442 528 669 559 535 203 241 286 292 336 324 234 430 645 868 1057 1140 978 806 462 462 388 208 266 618 623 638 795 264 428 649 507 0 0 151 197 0 0 0 0 0 0 0 0 0 1 2 0 1 0 0 0 0 0 0 0
551 346 215 196 124 239 273 409 340 383 283 233 182 228 324 383 364 536 410 742 707 684 1046 901 788 567 424 458 273 300 411 345 346 764 970 700 793 780 490 44 0 0 0 0 0 0 0 0 0 0 0 0 0 0 0 0 0 0 0 0 0 0 0
350 351 332 316 286 298 311 351 377 383 499 453 409 429 446 305 302 569 281 482 504 720 876 819 740 682 606 520 420 776 813 801 777 768 684 764 809 652 444 372 3 1 0 0 0 0 0 0 0 0 0 0 0 0 0 0 0 0 0 0 0 0 0

ECMWFFLT1_con_mucape_015.txt.gz
CAPE
1156 1212 1180 587 478 670 1283 2080 2961 3545 3366 3038 2636 2208 1376 1459 1430 1955 2024 1958 1728 1492 1448 1650 1688 1316 957 967 1140 1012 791 474 493 404 482 420 428 444 495 504 436 510 481 512 548 516 490 522 526 472 480 472 502 506 1104 1789 1802 1211 730 931 942 870 1317
1242 953 1306 910 472 984 1624 2850 3452 3270 3006 2963 2236 1808 1390 1514 1764 1984 1908 1848 1528 1665 1872 1849 1504 1179 942 962 955 818 563 389 342 359 370 410 471 448 358 330 353 476 611 652 620 573 596 552 518 562 568 506 428 452 687 842 946 1217 609 559 608 764 961
1392 765 1475 1582 572 667 1500 2936 3172 2849 2821 2621 2078 1606 1426 1828 1946 2063 1902 1557 1509 1842 2055 1668 1318 1136 1012 952 912 802 668 520 301 343 394 342 304 266 241 210 260 410 458 518 534 539 433 505 577 672 581 546 474 528 752 774 754 732 798 868 879 710 995
1346 927 1544 1928 2265 1354 1333 2242 2829 2390 2484 2314 2044 1763 1743 2176 2126 2179 1793 1518 1389 1699 1953 1552 1332 1078 1132 1104 1015 886 683 572 547 414 350 317 312 382 239 231 347 484 542 434 426 413 541 578 637 560 544 570 568 735 820 766 912 1019 1172 1238 1260 940 1002
1809 1621 1515 1886 2243 2081 2079 2740 2759 1978 1936 1882 1767 1833 2066 2636 2485 1942 1529 1466 1381 1614 1714 1509 1126 1028 1160 1150 1059 938 733 653 568 562 477 413 391 294 287 280 318 370 418 398 385 386 443 536 491 456 460 482 449 478 232 363 500 611 599 924 1042 933 766
1600 1995 1806 1600 2080 1392 809 2198 2330 1550 1423 1238 1409 1730 2137 2409 1858 1236 1260 1449 1490 1432 1498 1326 1208 1234 1249 1384 1154 824 801 632 525 501 480 445 399 338 264 252 310 388 318 361 292 244 260 338 429 486 539 462 269 292 248 340 401 388 562 787 1029 1132 1076
1713 2167 2061 1863 2340 2170 2384 2542 1886 1365 995 744 1188 1571 1898 1745 1144 650 772 1227 1150 1114 1218 1230 1283 1326 1358 1223 1204 1196 1033 745 617 610 654 572 488 464 363 378 330 340 373 368 362 292 230 232 323 479 537 596 716 636 702 721 769 858 1070 1118 1064 1173 1142
1684 2224 2370 2323 2426 1573 1704 1946 1587 1150 720 682 1317 1594 1517 1113 546 315 681 874 705 535 674 644 1166 1266 1382 1135 1007 1040 1055 902 679 530 567 553 466 308 315 292 228 280 434 331 304 189 155 224 259 286 526 696 893 936 966 990 1034 847 810 852 1102 1249 898
1979 2632 2649 2574 2185 1442 990 1728 1523 1007 804 1018 1640 1760 1216 714 358 294 487 570 607 426 549 531 769 1305 1508 1318 1146 1032 812 552 476 518 430 380 361 180 144 107 49 28 94 204 192 198 173 182 247 400 594 820 1001 1044 1086 1121 1172 842 750 826 1070 1351 1151
2356 3077 3033 2353 1660 1499 1608 1745 1474 1289 1006 1464 1883 1837 1019 498 335 264 239 224 340 355 433 396 164 630 1429 1457 1153 846 630 470 535 436 342 182 176 103 26 0 3 25 13 54 16 24 115 197 277 346 408 630 1007 1088 1384 1383 1470 1515 954 797 1072 1297 1387
2737 3287 3297 2804 2382 2141 2368 2105 1440 1554 1498 1769 2026 1622 953 494 352 353 351 224 134 147 150 206 80 51 658 1121 1038 840 598 474 428 416 423 280 54 4 0 0 0 0 0 0 9 28 36 19 46 115 290 739 1060 1100 1215 1380 1247 956 925 1151 1278 1337 1286
3172 3435 3490 3234 3059 2592 2497 2355 1697 1662 1547 1866 1932 1414 1016 958 359 427 427 328 106 32 14 37 159 156 241 353 448 462 398 483 462 329 257 138 32 0 3 0 4 1 8 12 6 0 0 0 0 17 194 476 1134 1656 1606 1570 1522 1957 1929 1750 1318 1162 1237
3254 3705 3731 3500 3224 2870 2878 2588 1878 1784 1794 2054 1920 1454 1349 1243 492 486 445 378 6 11 14 83 163 388 335 238 50 145 214 278 400 442 210 139 128 131 72 50 29 29 12 0 0 0 0 0 6 11 96 316 828 932 974 1304 1236 1528 1849 1843 1798 1686 1575
3250 3794 4071 4011 3586 3091 2979 2866 2373 2196 2452 2548 2192 1924 1614 1350 555 578 552 310 158 79 60 217 522 656 492 382 170 142 155 212 236 310 255 181 222 252 221 159 197 242 181 87 29 0 0 0 4 20 88 268 314 446 776 946 1150 1482 1510 1574 1737 1618 1356
2970 3469 4071 3951 3689 3338 3076 2981 2766 3018 3003 2626 2342 1905 1614 1117 650 668 595 341 342 242 240 444 832 883 699 686 546 418 307 339 359 287 220 192 298 308 299 307 266 248 181 76 18 1 0 6 21 98 182 277 384 685 811 1230 1267 1374 1582 1640 1711 1210 722
2814 2988 3548 3682 3653 3456 3208 3159 3362 3332 3045 2478 2215 1868 1430 1028 916 853 721 292 459 572 413 850 1120 1227 887 660 634 617 560 604 516 372 349 338 324 373 350 302 309 214 125 60 7 13 46 135 173 154 141 232 392 738 947 1260 1258 1081 985 1184 1597 1161 893
2419 2631 2887 3523 3606 3493 3430 3568 3764 3568 2944 2378 2164 1854 1322 971 1248 1392 352 253 401 724 629 916 1483 1421 1224 893 649 614 635 654 624 590 516 521 472 456 457 458 430 311 166 65 46 123 168 195 149 106 168 332 532 783 914 908 1046 530 868 1028 1200 1116 1056
1269 2271 2503 3070 3457 3613 3720 3852 3849 3524 2925 2242 2217 1830 1494 1572 992 698 570 300 390 648 737 961 1390 1554 1392 1151 818 670 641 569 579 588 604 619 658 610 539 499 402 305 180 93 81 147 120 170 188 255 326 522 766 846 858 924 995 727 969 1109 1152 984 1113
928 1590 2347 2840 3233 3452 3572 3680 3732 3586 2927 2327 2045 1729 1776 1446 901 1130 899 650 708 679 820 1089 1270 1528 1606 1197 875 734 738 673 619 658 646 741 789 734 617 552 415 266 140 71 54 102 212 226 242 313 498 552 710 725 735 822 558 800 919 1020 1024 1025 872
1046 1615 2186 2444 2816 3119 3462 3543 3456 3270 2917 2306 2107 1857 1506 1170 1416 1657 1221 748 855 719 876 1397 1447 1520 1382 1263 982 792 792 700 724 730 794 858 838 765 722 625 493 259 104 55 86 186 246 222 211 216 238 301 454 488 550 634 736 652 769 904 1050 1057 908
1583 1837 2262 2475 2741 2883 3251 3325 3400 3169 2760 2265 1880 1643 1295 1427 1656 1637 1316 1088 1075 959 1172 1322 1622 1474 1459 1236 1050 899 750 724 812 866 894 982 940 884 816 735 507 263 147 98 111 220 419 276 183 180 192 184 197 320 403 643 387 503 670 822 920 999 807
1650 1830 2286 2398 2655 2908 3167 3132 3197 3052 2763 2244 1582 1299 1276 1481 1557 1364 1372 1284 1172 1182 1542 1688 1568 1440 1198 1011 1008 958 902 829 920 1030 1032 1078 1009 972 965 796 534 370 326 218 204 313 310 280 192 92 156 246 295 428 508 584 560 512 441 642 819 834 913
1287 1734 2140 2411 2564 2733 2996 2987 3046 2879 2631 2050 1644 1511 1318 1439 1413 1296 1252 1346 974 1167 1533 1739 1788 1506 1150 1049 894 950 962 930 984 1117 1192 1174 1172 1296 1147 833 570 374 320 279 290 380 317 242 144 174 178 437 466 388 655 783 770 472 489 583 713 608 1276
1141 1700 2289 2345 2613 2685 2956 2982 2935 2854 2472 2110 1826 1592 1375 1259 1497 1653 1500 1374 1162 1042 1524 1734 1597 1464 1254 1004 912 989 970 1014 1064 1097 1110 1138 1151 1155 1058 751 574 368 284 230 254 261 394 305 292 468 458 396 505 506 453 303 291 332 402 611 670 796 1368
1107 1838 2243 2380 2615 2963 3094 3134 3027 2914 2667 2274 2084 1872 1666 1485 1447 1686 1822 1447 962 1043 1456 1737 1516 1322 1238 1135 987 971 1003 1008 1090 1084 960 1048 1076 988 845 678 575 404 350 334 420 512 474 347 342 375 421 292 383 198 186 466 659 534 475 511 672 716 1485
1654 2030 2404 2460 2841 3371 3497 3446 3198 2900 2539 2415 2568 2423 2180 1962 1725 1419 1501 1664 1328 988 1159 1478 1504 1336 1239 1202 1061 1016 1092 1118 1170 1149 983 926 886 897 889 756 531 450 544 459 303 259 259 260 190 256 450 577 468 362 326 654 569 1306 954 493 537 20 604
2022 2195 2314 2219 2626 3128 3518 3419 3085 2787 2465 2717 2870 2749 2479 2215 2461 2286 2070 2176 2192 1680 1206 1303 1522 1457 1432 1360 1091 1050 1216 1342 1367 1235 999 884 831 809 794 772 712 774 734 472 369 372 451 384 411 360 450 551 640 720 887 628 770 1346 652 541 216 0 61
1816 1968 1735 2024 2843 3040 3266 2671 3104 2809 2497 2768 3110 3008 2659 2980 3094 2984 2630 2407 2346 2226 1712 1538 1482 1440 1577 1676 1374 1216 1210 1315 1595 1255 1081 1037 1027 1032 955 843 776 707 598 472 542 510 457 570 598 580 565 591 737 865 827 975 832 1355 1032 794 653 544 28
1528 1252 1657 2613 2410 2553 1821 1972 2122 1633 1411 1516 1756 2478 2880 3046 3234 3204 2958 2728 2710 2544 2161 1846 1626 1612 1837 1853 1686 1723 1447 1406 1377 1185 1003 1039 1000 974 1060 1216 1285 1152 1050 964 783 632 578 707 731 683 730 857 822 668 662 1010 1842 1242 1064 926 831 690 210
1335 1357 1915 1237 965 1374 842 1625 1408 1038 807 587 888 1512 2527 2975 3081 3108 2960 2846 2679 2561 2425 2107 1843 1887 2085 2132 2204 2086 1614 1450 1354 1235 1196 1168 1157 1086 1133 1303 1482 1497 1394 1138 954 1028 809 696 778 886 759 627 416 778 576 1008 1645 653 696 821 403 0 0
1118 1284 983 473 720 901 954 1382 1776 1472 1664 2155 2589 2960 3109 3001 2744 2707 2714 2686 2577 2395 2359 2356 2138 2084 2383 2478 2375 2157 1748 1548 1458 1254 1282 1294 1272 1240 1324 1470 1635 1468 1464 1041 1078 800 934 825 842 857 739 570 512 617 599 599 903 1201 865 288 43 1 0
1349 1112 595 680 1452 1518 1238 928 1194 1742 2134 2869 2917 2852 2647 2472 2331 2274 2408 2436 2288 2172 2134 2310 2371 2306 2497 2546 2004 1834 1834 1608 1356 1254 1289 1398 1308 1126 1169 924 1358 1397 882 807 892 714 950 946 737 690 605 478 681 350 588 329 423 1106 815 332 152 71 13
1798 1388 1196 1576 2182 1677 1298 1148 971 1148 1202 1502 2086 2482 2323 2742 2696 2614 2483 2317 2066 2138 2428 2574 2694 2693 2698 2321 1770 1840 1590 1488 1376 1014 1436 1617 1282 621 708 1056 1150 1101 1032 818 728 536 423 707 496 577 414 905 444 388 500 594 587 818 296 14 2 2 0
1988 1961 2208 2246 1835 1784 1630 1495 1406 1585 1810 2102 2156 2179 2008 1520 1251 1144 1583 1474 1233 995 1970 2644 2671 2564 2508 2345 2165 1719 1519 1468 1209 1346 1294 1009 658 643 1081 1412 1276 1067 777 773 612 485 549 604 545 642 717 568 506 601 718 291 502 264 0 0 0 0 0
2346 2482 2233 1959 1812 1942 2347 1845 1831 1808 1392 1966 1815 1599 1460 1352 1136 560 377 259 904 1282 1224 1993 2389 2352 2231 2070 1790 1403 1172 1172 1575 1504 1191 865 708 1061 697 767 1569 1212 781 737 864 1042 1040 630 264 392 552 474 453 663 419 336 275 0 0 0 0 0 0
2384 2147 2072 1888 1908 1900 1560 1405 1278 1388 1328 1788 1538 1382 1452 1310 1177 1233 696 328 322 746 1109 1722 2084 2059 1672 1030 859 995 882 1129 978 988 948 966 870 584 376 0 114 1024 1097 645 484 445 0 0 332 117 151 171 346 173 110 27 0 0 0 0 0 0 0
1614 1268 1145 1032 1234 1312 1586 1398 1149 1472 1254 1614 1318 1342 1154 1170 940 1130 889 821 1131 1099 1388 1619 1594 1186 856 711 766 630 797 698 1447 496 1019 611 478 746 544 12 0 0 244 285 0 0 0 0 0 0 0 0 184 0 0 0 0 0 0 0 0 0 0
864 853 832 789 1284 1278 1436 1493 1383 1509 1492 1583 1163 1279 1158 873 882 1098 700 744 1026 1228 1257 1326 1432 1330 1096 725 588 1462 834 681 513 761 679 594 691 1022 914 470 162 0 0 0 0 0 0 0 0 0 0 0 0 0 0 0 0 0 0 0 0 0 0

ECMWFFLT1_con_mucape_021.txt.gz
CAPE
56 158 652 644 558 498 918 1306 1838 1919 2264 2317 2511 2740 2694 2549 2353 1859 838 1148 1006 1408 988 1100 826 928 1310 1025 1475 1130 755 451 421 808 98 593 414 124 142 408 327 407 376 321 318 532 662 752 583 606 808 796 737 756 835 900 1230 1434 1388 1482 1116 1040 983
143 342 481 541 482 665 1225 1540 1920 1975 2448 2358 2602 2760 2595 2447 2148 1419 980 1196 1068 1307 1026 1211 1136 1219 1396 1167 1295 894 729 698 594 1236 526 517 644 375 233 570 392 230 29 14 514 664 535 482 510 712 593 763 660 716 779 756 906 929 944 1171 738 640 740
70 102 336 622 608 934 1424 1720 2061 2104 2510 2551 2722 2716 2551 2348 1974 1290 1164 1248 1214 1281 1000 1236 1344 1315 1409 1496 1101 698 626 450 679 420 236 70 84 75 432 432 138 170 324 376 314 471 662 708 713 552 496 535 748 744 720 828 652 785 975 1040 880 825 868
181 56 414 703 720 1205 1500 1724 2110 2160 2591 2702 2796 2684 2506 2283 1844 1224 1377 1244 1534 1235 1124 1024 1542 1298 1536 1455 1135 1027 788 500 326 162 160 214 240 181 265 285 134 17 36 266 597 238 217 294 395 497 1318 731 654 757 768 684 684 697 805 910 1046 1225 1188
158 458 581 761 812 1509 1552 1707 2092 2218 2633 2824 2831 2663 2367 2174 1756 1357 1586 1284 1731 1300 1239 1203 1438 1502 1448 1258 1274 1032 709 547 375 198 266 196 298 806 87 74 35 106 210 439 253 549 828 633 453 363 422 654 592 568 649 772 806 840 807 801 804 925 940
411 1032 791 887 992 1641 1613 1832 2075 2366 2703 2818 2839 2664 2351 2076 1660 1685 1698 1538 1708 1598 1184 1460 1398 1656 1260 1209 1204 1033 829 754 332 449 234 230 180 66 40 24 22 124 127 14 172 305 262 154 145 266 385 312 247 266 441 564 702 743 718 782 798 828 988
521 1114 966 1066 1223 1677 1642 1885 2350 2705 2792 2793 2775 2647 2354 2081 1650 1772 1851 1685 1767 1712 1418 1508 1450 1606 1219 1165 1088 962 912 748 522 458 351 354 296 231 228 206 258 49 28 245 222 258 199 132 240 384 421 341 445 503 522 825 880 951 925 885 902 1028 1027
940 1050 1124 1226 1285 1698 1730 1788 2509 3101 3032 2833 2721 2599 2364 2011 1664 1700 1908 1826 1672 1700 1737 1528 1580 1456 1236 1154 1086 1021 730 633 392 361 256 209 234 349 419 369 277 206 164 54 48 339 326 312 358 420 236 336 395 463 740 783 952 1076 998 983 980 951 985
1124 1017 1158 1291 1316 1553 1768 1793 2239 3074 3125 2884 2715 2572 2343 2058 1740 1543 1763 1816 1572 1684 1826 1673 1590 1354 1180 1187 1020 1026 844 786 554 539 446 360 498 567 537 364 167 136 202 256 260 431 359 336 396 336 265 379 380 408 625 879 908 1127 918 936 895 823 880
1022 969 920 1053 1251 1340 1606 1820 1854 2380 2939 2919 2764 2573 2340 1993 1647 1518 1627 1686 1509 1562 1787 1718 1530 1258 1131 1229 1193 989 1035 946 840 641 590 539 535 434 208 157 132 169 154 114 117 123 417 576 470 358 390 369 491 554 658 767 1154 1197 1187 1118 1194 864 802
1179 1042 898 829 831 1048 1382 1758 1786 1871 2224 2514 2530 2396 2171 1914 1650 1384 1638 1535 1343 1345 1580 1574 1425 1183 1167 1112 1210 1220 1062 960 803 600 408 208 158 129 80 66 24 82 17 0 0 0 0 0 186 294 429 481 419 614 650 761 945 1163 1189 1316 1251 1010 740
1700 1440 1382 1080 899 882 1286 1702 1856 1849 1922 2123 2299 2284 2123 1866 1601 1430 1557 1482 1192 1148 1296 1310 1293 1146 1253 1107 992 1022 951 698 585 370 241 160 83 16 4 3 0 0 0 19 0 0 1 0 0 97 168 297 537 473 471 580 985 1006 1005 1383 1217 992 836
2528 2153 2162 1551 1441 1160 1112 1586 1853 1783 1793 1882 1945 2014 1902 1661 1644 1454 1416 1398 1121 936 1042 891 1021 1094 1211 1139 986 889 641 649 560 292 195 224 151 133 98 8 4 40 77 55 68 1 0 0 0 126 224 238 64 128 277 321 478 725 1095 1472 1279 1078 820
3530 2727 2971 2214 1780 1844 1561 1428 1846 1920 1802 1722 1752 1790 1773 1740 1700 1480 1062 1054 933 679 692 597 928 1068 1129 1090 1160 1084 794 568 572 275 166 177 274 190 107 56 106 26 86 202 38 39 19 5 0 1 96 50 70 82 133 110 98 328 1014 1395 1113 729 404
3091 3250 3366 3167 2056 2010 1795 1714 1826 1917 1910 1852 1779 1706 1738 1766 1713 1405 931 628 575 493 422 652 961 1154 1133 1118 1249 1180 832 674 534 306 288 382 237 142 88 100 80 140 208 164 247 334 105 21 2 27 20 28 26 50 147 290 399 955 1175 1052 687 563 690
2504 3095 3262 3368 2819 2424 2225 2160 2149 2072 1969 1942 1938 1872 1761 1701 1530 1100 847 606 458 418 426 793 965 1188 1241 1149 1185 1104 889 702 521 394 281 266 161 62 62 106 202 240 196 217 248 312 274 62 177 276 43 6 203 304 268 318 680 1346 886 715 686 799 938
1192 2736 2866 3038 3085 2727 2449 2304 2235 2216 2231 2237 2158 2081 1953 1543 1172 689 639 554 496 397 371 663 921 1011 929 360 434 814 740 212 235 210 273 188 112 143 209 208 264 233 232 393 408 170 144 388 16 0 12 160 89 28 80 301 628 882 799 686 580 680 835
35 814 1956 2060 2279 3145 2764 2457 2265 2236 2226 2316 2361 2311 2224 1854 1192 1028 894 759 617 512 471 445 458 420 327 277 360 351 272 158 170 214 206 178 186 189 207 302 319 312 320 398 496 525 465 282 210 223 220 214 131 74 116 254 475 336 160 328 76 198 488
1145 1411 1780 2316 2719 3032 3045 2714 2448 2364 2251 2141 2128 2170 2119 2012 1684 1254 1140 966 778 652 633 570 372 280 278 289 394 432 279 285 300 264 292 262 230 237 368 360 398 468 475 500 480 504 471 357 335 378 209 228 264 370 296 218 190 60 0 0 1 2 130
1037 908 1827 2509 2886 2944 2818 2701 2576 2532 2392 2182 2032 1880 1896 1857 1777 1526 1173 1075 848 760 590 472 382 387 314 405 632 533 446 434 485 470 387 366 350 394 410 536 552 520 530 508 521 508 436 417 248 143 326 380 277 226 205 228 75 0 0 0 0 0 8
374 836 838 1028 2670 2657 2526 2559 2524 2423 2386 2270 2114 1940 1763 1777 1820 1650 1377 1125 1028 861 855 637 507 803 734 793 806 735 666 683 608 640 619 606 538 466 516 605 622 669 652 588 567 522 389 226 275 434 555 442 162 54 98 448 1 0 0 0 0 0 0
440 314 436 680 621 2396 2561 2298 2292 2373 2410 2326 2106 1940 1811 1833 1812 1690 1461 1320 1189 1040 861 853 844 1223 1176 1025 948 813 783 748 722 672 708 681 647 637 611 634 680 710 721 708 623 528 439 424 438 336 274 210 223 207 371 550 0 0 0 0 0 0 0
28 106 189 578 1004 2038 2388 2430 2388 2746 2705 2393 2039 1814 1870 2005 2030 1838 1626 1592 1324 1127 1003 1025 994 1429 1406 1307 1156 1030 879 774 723 692 676 678 664 644 656 688 731 756 799 840 745 646 592 450 316 282 224 199 205 358 68 185 122 0 0 0 0 0 4
226 186 1065 2306 4066 4283 3781 3372 2926 3238 2965 2583 2192 2196 2292 2440 2387 2062 2075 1876 1750 1426 1124 928 966 1443 1568 1507 1410 1278 1117 930 780 712 688 678 657 662 664 715 796 848 955 905 871 757 676 571 374 329 335 343 282 340 98 120 476 0 0 0 0 0 196
180 1736 2333 3166 3854 4113 4097 3960 3566 3537 3158 2919 2879 2842 2945 2944 2508 2477 2238 1982 1838 1685 1381 914 1210 1396 1637 1635 1607 1544 1340 1105 919 818 754 694 670 658 709 786 866 952 1075 1007 882 800 774 608 364 239 312 318 151 566 181 33 397 0 0 10 0 0 30
2331 2384 2800 3091 3598 3800 3855 3919 3894 3712 3408 3352 3266 3023 3047 3034 2644 2448 2186 1966 1820 1637 1061 1174 1468 1545 1638 1686 1706 1696 1580 1347 1114 880 775 736 690 681 738 856 964 1055 1109 1076 911 794 654 529 400 242 159 55 83 540 269 230 292 593 542 50 0 0 4
2347 2643 2693 3010 3442 3611 3662 3658 3607 3748 3696 3583 3370 3108 2847 2752 2440 2188 1930 1775 1529 1033 944 1074 1284 1574 1743 1832 1853 1797 1704 1559 1384 1165 835 647 680 778 831 859 958 920 947 975 783 638 581 496 361 298 236 220 197 245 416 651 614 583 180 0 0 0 0
2460 2551 2572 2988 3230 3373 3540 3624 3421 3339 3336 3340 3182 3044 2862 2606 2408 1859 1584 1375 994 988 1043 1104 1167 1395 1663 1844 1855 1822 1742 1627 1480 1264 960 719 671 819 944 783 600 490 366 430 504 492 566 536 452 321 318 268 148 370 326 462 746 349 0 0 0 0 387
2320 2384 2925 3002 3117 3295 3348 3352 3156 3090 3159 3043 2994 2857 2686 2352 1862 1600 1802 1578 1526 2155 2878 2368 1722 1689 2080 2122 2062 1764 1596 1477 1382 1242 1080 869 655 648 524 505 484 300 310 332 366 128 371 845 627 552 456 392 341 218 295 578 966 438 402 47 358 397 373
1773 1854 3142 3112 3182 3237 3055 3165 2900 2310 2204 2468 2527 2470 2268 2243 2409 2570 2602 2855 2834 2814 2625 2675 2913 2988 2720 2356 2197 2020 1790 1653 1370 1192 1001 854 730 657 480 364 524 451 338 243 196 163 249 171 468 512 526 494 429 399 365 552 1034 666 480 586 450 304 0
2362 2570 3138 3117 3084 3073 3024 2972 2418 1528 1289 1553 2024 2308 2624 2681 2994 3162 2968 2881 2726 2442 2341 2270 2546 2621 2800 2852 2847 2746 2334 1931 1588 1412 1186 1029 1009 937 744 638 648 478 420 413 402 87 0 0 157 374 663 596 460 458 500 1257 1040 770 586 385 0 0 0
2194 2397 3040 3095 3100 3072 2935 2475 1743 1133 818 1212 1380 2834 3204 3124 2966 2995 2990 2858 2442 2152 2198 2288 2161 2072 2350 2560 2455 2294 2010 1854 1765 1674 1619 1584 1358 1100 890 882 669 547 542 538 539 504 340 208 0 298 511 618 540 504 653 1105 1127 703 507 374 275 316 0
1805 2100 2688 2549 2253 1854 1667 1478 950 954 778 1026 980 1768 2565 2961 2949 2636 2100 1937 2039 2101 2365 2411 2406 2559 2156 2380 2411 2250 2070 2082 2029 1987 1984 1983 1836 1365 1001 786 736 636 540 576 573 244 20 29 50 223 494 534 502 496 503 409 675 704 564 366 387 168 0
1570 1619 1542 1289 1140 1086 1388 999 758 880 957 1155 1483 1720 1913 1977 2052 2205 2159 1903 1036 1351 2235 2053 2493 2360 2282 2404 2563 2344 2072 1932 2001 1664 1627 1480 1192 1036 924 780 628 550 601 614 575 510 450 318 274 370 451 404 576 551 512 385 368 338 318 376 326 0 0
1455 1546 1305 996 877 977 1071 866 1002 956 797 1317 1230 1183 1054 702 344 9 144 603 1020 886 1220 1730 1730 1839 2109 2171 2159 2305 1915 1601 1414 1303 1182 1039 837 691 601 584 592 603 538 471 528 477 418 354 348 413 511 425 466 510 396 284 114 142 0 10 298 223 0
959 1093 1105 956 990 857 753 859 850 606 591 740 732 427 348 300 90 0 54 544 1018 1209 1211 1332 1304 1237 1128 1138 1556 1700 1954 1827 1535 1208 869 678 559 518 566 639 639 555 421 567 626 539 456 397 404 314 360 445 435 377 401 417 0 0 334 367 340 0 0
1018 932 836 750 852 833 765 686 709 708 394 41 385 50 85 299 480 267 398 644 776 982 904 1054 1162 1017 994 812 704 1227 1537 1151 951 749 612 601 600 596 548 539 489 413 357 328 262 320 308 314 328 355 390 437 481 380 331 67 0 29 298 196 53 30 37
1158 1097 1062 950 806 907 851 800 829 802 592 168 64 106 276 311 480 508 484 842 778 742 632 774 841 917 820 908 1010 2168 2172 1642 1464 1326 917 816 695 716 703 562 450 267 193 0 0 172 0 339 389 412 418 482 405 182 0 0 42 137 100 68 44 30 20

ECMWFFLT1_con_mucape_024.txt.gz
CAPE
586 756 780 772 811 940 1047 1091 1107 1242 1438 2044 2444 2804 3028 3060 3003 2912 2790 2731 2656 2362 2058 1675 620 53 43 0 18 202 89 42 7 3 29 15 17 84 0 0 0 0 0 0 0 13 66 163 208 171 219 271 212 259 381 614 943 1085 880 946 1187 940 774
341 610 767 788 812 865 964 1078 1092 1256 1461 2061 2373 2658 2916 2986 2922 2759 2617 2614 2581 2275 1708 1136 342 171 114 122 166 437 190 3 87 347 32 235 236 0 0 0 0 0 3 1 0 4 156 187 184 118 285 432 324 189 275 374 460 610 714 832 875 613 597
185 442 704 793 808 850 938 1001 1160 1300 1540 2011 2290 2521 2695 2723 2616 2475 2457 2491 2484 2103 1406 365 346 339 206 274 599 360 52 6 229 212 16 26 26 0 0 36 5 4 0 0 3 68 298 52 85 116 122 121 135 196 216 228 370 467 486 675 755 629 570
57 325 595 735 800 839 879 966 1247 1338 1616 1987 2233 2444 2515 2488 2433 2372 2340 2322 2256 1892 1141 388 320 606 515 438 838 766 715 612 212 35 0 0 0 0 30 78 1 0 0 0 10 158 300 164 142 97 892 147 180 230 281 350 426 417 461 592 641 656 712
10 109 512 651 710 777 862 1014 1305 1371 1656 1966 2212 2395 2395 2374 2335 2302 2262 2121 1919 1553 867 584 410 446 805 691 882 962 904 768 542 0 0 0 0 2 10 15 1 0 0 0 18 224 132 84 22 39 76 198 174 183 290 232 290 461 534 562 533 656 707
7 80 448 615 706 758 808 1052 1369 1467 1692 1921 2162 2357 2325 2276 2244 2205 2124 1930 1685 1234 651 717 696 700 826 973 907 980 900 731 528 1 0 0 2 1 0 0 0 0 0 0 89 72 89 67 50 20 3 22 96 110 76 111 162 262 291 328 301 387 558
56 134 315 510 622 724 770 1128 1452 1586 1786 1935 2122 2309 2237 2173 2137 2080 1973 1863 1538 978 795 823 828 827 860 1043 985 862 750 654 574 218 6 0 0 0 0 0 20 0 0 0 0 0 12 4 0 0 0 1 52 5 18 97 244 472 554 554 546 556 578
96 154 264 428 556 651 751 1140 1497 1633 1868 1987 2154 2266 2192 2102 2038 1992 1843 1779 1580 901 806 811 927 896 954 1078 1131 996 832 736 640 479 18 1 0 0 0 0 22 15 0 0 0 0 1 0 0 0 3 32 18 33 32 75 185 253 512 652 637 670 739
112 137 282 454 533 696 910 1170 1462 1653 1929 2112 2218 2235 2166 2064 2003 1938 1900 1843 1655 1035 599 579 924 1016 962 1071 1131 1048 824 737 639 497 336 17 3 16 10 19 9 10 9 0 0 0 0 0 0 2 24 29 36 32 44 84 145 195 511 650 533 493 546
212 328 313 483 582 881 1000 1236 1521 1704 2045 2206 2292 2241 2130 2052 1987 1922 1875 1814 1643 1195 924 684 630 1051 1002 1028 1047 874 733 662 607 518 429 27 31 22 36 72 66 66 2 0 0 0 1 26 19 25 28 23 34 25 27 63 127 238 532 672 681 700 709
418 512 518 588 794 1059 1144 1342 1629 1856 2096 2285 2367 2294 2141 2044 1990 1940 1886 1790 1637 1137 1048 838 753 960 1048 1017 968 773 664 652 635 542 454 415 99 124 148 158 134 60 29 0 0 0 0 8 57 38 26 46 28 20 38 85 150 250 572 712 734 773 722
612 749 719 756 921 1210 1300 1444 1830 2024 2167 2292 2386 2357 2236 2105 2050 2006 1934 1834 1651 1472 1055 906 1130 1088 1105 1037 896 754 703 714 670 570 510 494 488 165 166 135 43 0 0 0 0 0 0 0 0 12 0 2 15 15 36 68 112 199 272 528 753 797 791
718 814 928 925 970 1223 1388 1523 1980 2235 2283 2333 2379 2413 2325 2225 2126 2058 1996 1904 1795 1692 1532 1180 1124 1171 1099 1078 1027 843 747 715 634 586 607 620 562 452 50 23 1 0 0 0 0 0 0 0 0 4 0 8 23 17 29 18 19 83 174 317 678 855 835
1054 818 887 1005 1020 1166 1409 1518 1828 2268 2431 2394 2386 2394 2355 2276 2194 2133 2089 2046 1985 1913 1760 1449 1227 1312 1150 1086 1041 896 782 745 701 698 729 676 592 201 1 0 0 0 0 0 0 0 0 0 0 0 11 0 0 0 0 0 0 0 3 161 608 837 835
982 764 735 828 1010 1150 1362 1557 1617 1956 2370 2483 2456 2436 2370 2322 2281 2228 2229 2180 2123 2009 1660 1560 1444 1352 1271 1156 1042 911 853 838 817 798 781 614 540 6 0 0 0 0 0 0 0 0 0 0 0 0 0 0 0 0 0 0 0 0 2 233 615 830 851
1048 955 938 847 844 1021 1249 1501 1609 1662 1975 2372 2552 2574 2533 2494 2426 2402 2389 2352 2235 1984 1712 1658 1581 1362 1359 1187 1025 925 895 872 841 760 538 115 52 18 3 0 0 0 0 0 0 6 39 5 0 0 0 0 0 0 0 11 44 281 306 537 651 722 685
1276 1185 1266 1093 1020 946 978 1127 1448 1640 1692 1912 2299 2525 2577 2556 2523 2449 2392 2273 2066 1890 1722 1749 1659 1446 1342 1177 966 933 903 768 728 612 460 534 539 10 0 0 0 0 0 0 1 7 21 51 1 4 0 0 0 0 0 0 5 50 134 519 695 537 114
1628 1722 1868 1590 1191 1160 1082 1031 1124 1450 1637 1716 1884 2156 2316 2360 2325 2248 2145 2041 1894 1752 1707 1696 1580 1296 1322 1180 1029 986 919 819 670 432 572 609 591 15 0 0 0 0 0 0 4 5 12 20 8 0 0 0 0 0 0 0 6 3 2 49 375 558 565
1488 1906 2205 2236 1768 1427 1385 1293 1198 1317 1533 1601 1721 1864 2037 2137 2120 2100 2032 2018 1966 1912 1700 1611 1434 1181 1208 1164 1109 1078 1021 1008 852 717 677 668 621 12 0 0 0 2 5 12 14 13 53 198 30 5 0 5 20 16 10 16 19 3 0 0 0 5 418
1171 1743 2135 2462 2489 2060 1747 1618 1579 1528 1454 1558 1606 1641 1774 1881 1938 1959 2021 2111 2122 2046 1805 1502 1178 986 1056 1069 1096 1121 1078 1123 1052 947 871 802 684 529 10 11 19 21 23 28 32 146 218 220 220 219 199 129 118 43 34 23 29 14 0 0 0 0 3
580 804 1214 1796 2405 2703 2522 2188 2052 1951 1888 1784 1697 1638 1632 1675 1795 1934 2032 2068 2067 2004 1864 1494 1014 759 754 796 1054 831 931 939 954 1042 1062 883 671 496 384 288 27 36 40 134 219 237 237 245 279 262 236 232 147 46 51 40 83 1 0 0 0 0 0
593 904 1198 1595 1772 2042 2528 2645 2461 2303 2183 2048 1945 1890 1857 1860 1874 1955 2004 2006 1960 1840 1671 1332 1200 1003 833 709 769 535 548 560 525 829 867 694 479 331 113 33 42 57 178 249 278 281 304 335 350 363 329 230 151 194 194 34 38 0 0 0 0 0 0
24 44 374 1244 1938 2148 2251 2423 2420 2302 2167 2049 1974 1941 1938 1980 1989 1968 1924 1829 1712 1571 1481 1231 1260 790 775 693 602 585 601 561 481 377 340 153 104 101 90 128 276 261 282 362 400 399 422 438 452 474 430 285 186 171 62 51 167 109 0 0 0 0 0
15 18 1 112 1053 1770 2122 2277 2326 2300 2262 2223 2131 2114 2174 2113 2018 1891 1799 1607 1444 1433 1538 1524 1356 841 699 682 677 631 582 516 411 269 314 326 326 208 308 330 404 441 452 505 535 548 559 554 565 577 578 489 315 175 176 188 86 0 0 0 0 0 40
129 76 49 315 817 1113 1630 2070 2205 2275 2416 2460 2425 2311 2262 2133 1986 1709 1602 1498 1447 1555 1428 1341 1244 1113 979 917 898 762 634 595 567 491 467 470 469 465 487 508 499 491 532 598 648 655 679 634 626 662 508 159 266 256 288 238 244 0 0 0 0 86 179
1350 1680 2057 2579 2861 2620 2185 1972 2119 2154 2198 2255 2347 2327 2148 2000 1918 1751 1619 1582 1656 1625 1501 1414 1312 1353 1238 1075 972 903 875 817 761 701 640 618 612 481 490 527 538 443 317 562 717 757 722 674 648 670 452 0 8 199 254 172 187 222 0 0 197 260 91
1605 2146 2722 3153 3396 3422 3139 2670 2450 2405 2334 2279 2283 2286 2228 2060 1623 1500 1392 1261 1450 1649 1458 1432 1462 1549 1475 1202 1129 1230 1183 1094 982 885 834 856 870 724 684 690 740 740 629 652 770 816 836 876 872 776 591 122 0 49 224 142 61 136 154 258 350 167 175
2350 2561 3092 3350 3662 3641 3542 3181 2974 2795 2624 2490 2317 2230 2035 1392 952 1111 1184 848 807 1272 1412 1664 1746 1696 1538 1182 1237 1406 1458 1438 1380 1296 1256 1208 1089 1029 1058 1032 1054 961 636 567 695 775 772 719 715 726 570 227 2 3 0 2 285 383 393 367 206 211 215
2397 2624 2982 3208 3426 3565 3560 3520 3362 3203 3092 2885 2722 2601 2099 1307 1028 997 956 832 1310 1490 1610 1730 1726 1614 1286 1110 1340 1479 1567 1583 1573 1528 1472 1431 1409 1423 1381 1275 1220 1153 966 599 606 726 773 696 631 599 476 246 50 0 0 0 18 21 299 189 262 291 237
2371 2565 2823 3038 3186 3304 3312 3344 3566 3542 3413 3300 3121 2683 1931 1330 1056 1057 1038 1396 1789 1663 1728 1645 1504 1203 1189 1464 1571 1658 1712 1674 1647 1629 1610 1619 1605 1580 1211 1252 1291 965 782 611 478 586 666 608 501 513 497 358 31 0 0 0 1 61 242 301 352 344 252
2596 2649 2704 2898 3016 3126 3085 3029 3091 3294 3374 3253 3165 2736 1973 1357 1278 1432 1443 873 844 1285 1492 1301 952 946 1222 1501 1602 1798 1830 1790 1850 1870 1875 1861 1810 1661 1462 1181 929 926 759 580 525 550 604 605 553 501 504 459 320 0 0 0 11 174 342 385 398 371 271
2650 2685 2712 2757 2853 2938 2984 2956 2951 2931 2836 2722 2425 2105 1498 1270 1311 1216 725 557 747 1291 1352 1382 1450 1514 1768 1906 2052 2148 2153 2160 2145 2091 1948 1674 1552 1576 1627 1652 1266 813 671 603 602 626 664 665 603 585 557 506 422 48 0 3 122 524 577 436 422 359 256
2340 2566 2551 2596 2592 2757 2884 2950 2981 2915 2586 2086 1579 1356 1259 1209 912 623 111 612 927 1324 1339 831 338 1639 2149 2252 2322 2337 2159 1946 1819 1694 1652 1693 1729 1610 1372 1031 851 728 628 566 545 558 583 596 610 631 641 507 149 0 258 405 559 773 682 472 382 320 264
1928 2071 2200 2402 2454 2613 2778 2882 2931 2770 2221 1642 1304 1340 1294 1142 1129 1068 1102 694 900 427 532 1115 1539 1610 1787 1833 1813 1834 1761 1722 1721 1735 1664 1484 1330 1157 929 744 639 589 569 534 513 527 564 580 609 624 588 529 522 426 405 433 558 739 673 514 394 319 268
1640 1963 2233 2380 2517 2738 2912 2876 2690 2186 1506 1237 1417 1434 1438 1535 1373 1187 1057 169 238 1301 1553 1569 1816 1831 1870 1905 1875 1887 1774 1684 1444 1370 1248 1094 1046 912 753 690 553 499 509 523 549 594 563 507 496 490 512 477 420 437 485 482 498 539 554 480 400 259 0
1314 1537 1890 2133 2338 2325 2052 2136 1953 1357 1093 986 1056 1196 1045 844 784 701 44 22 0 105 737 1284 1690 1739 1911 2098 1919 1838 1620 1479 1486 1256 1213 1074 849 619 489 479 423 464 481 552 514 457 449 479 503 469 358 315 365 364 417 550 570 528 494 471 471 434 303
1103 1231 1378 1476 1533 1438 1330 1348 1242 968 947 890 687 510 0 0 42 45 0 0 12 49 382 930 1201 1272 1517 1483 1380 1395 1582 1512 1401 1272 1072 835 648 488 472 442 399 409 392 352 292 308 352 303 250 197 0 0 224 268 307 360 374 383 386 401 417 338 424
939 920 1030 1099 1093 1081 1099 1068 1074 930 752 801 684 0 0 254 417 204 0 47 216 358 490 529 362 390 379 381 735 1277 1020 1129 1121 965 757 639 506 481 438 383 424 348 332 252 158 188 114 0 0 0 0 0 0 86 257 246 150 0 0 0 100 295 332

ECMWFFLT1_con_mucape_027.txt.gz
CAPE
392 575 748 865 1010 1194 1350 1464 1529 1649 1756 1831 1869 2098 2391 2570 2617 2657 2746 2817 2830 2815 2826 2822 2770 2640 2386 2049 1602 1006 90 0 0 0 0 0 0 0 0 0 0 0 0 0 0 0 4 1 16 29 16 68 50 44 25 98 369 544 534 499 487 551 589
254 467 703 815 918 1087 1266 1413 1468 1546 1720 1827 1868 2026 2366 2590 2673 2672 2720 2774 2825 2828 2866 2836 2672 2482 2246 1892 1473 809 0 0 5 74 0 0 12 0 0 0 0 0 0 0 0 0 0 4 27 5 10 115 146 8 1 31 110 175 501 480 329 534 567
179 333 579 750 842 957 1113 1278 1385 1434 1594 1722 1772 1975 2322 2566 2700 2721 2713 2736 2796 2844 2837 2761 2552 2392 2224 1749 1256 370 0 0 3 6 0 0 0 0 0 0 0 0 0 0 0 0 1 0 12 0 0 13 46 8 0 0 9 23 45 65 155 192 18
62 257 459 613 762 898 1023 1137 1226 1310 1426 1552 1638 1936 2295 2531 2693 2716 2694 2672 2735 2835 2844 2730 2541 2399 2221 1707 1026 9 3 0 0 0 0 0 0 0 0 0 0 0 0 0 0 0 15 23 4 0 312 5 0 0 0 0 0 1 2 8 32 51 23
34 184 402 538 653 806 969 1068 1108 1164 1246 1386 1544 1877 2257 2505 2663 2674 2669 2648 2710 2762 2794 2676 2540 2404 2205 1649 463 46 56 0 1 0 0 0 0 0 0 0 0 0 0 0 0 28 58 45 0 0 2 26 0 0 0 0 0 0 0 0 3 17 32
12 130 324 517 614 696 805 924 1002 1055 1107 1219 1428 1776 2154 2480 2626 2644 2638 2633 2641 2706 2684 2607 2517 2400 2130 1626 271 114 44 6 344 450 0 0 0 0 0 0 0 0 0 0 0 0 0 4 1 0 0 0 0 0 0 0 0 0 0 0 0 5 45
7 104 222 450 615 697 733 785 886 983 1045 1131 1354 1708 2076 2428 2599 2612 2579 2568 2602 2593 2618 2570 2455 2336 2061 1462 211 223 66 367 510 428 0 0 0 0 0 0 0 0 0 0 0 0 0 0 0 0 0 0 0 0 0 0 0 0 0 0 1 0 0
9 27 66 337 528 663 746 803 836 946 1056 1137 1377 1768 2123 2370 2539 2576 2516 2480 2526 2541 2482 2371 2340 2250 1881 1334 252 273 138 400 457 462 457 381 0 0 0 0 0 0 0 0 0 0 0 0 0 0 0 0 0 0 0 0 0 0 0 0 1 3 19
65 44 29 73 400 564 724 788 828 890 1040 1202 1456 1780 2082 2282 2397 2468 2483 2379 2406 2422 2354 2071 2104 2030 1646 1042 386 422 391 413 546 713 712 546 0 0 0 0 0 0 0 0 0 0 0 0 0 0 0 0 0 0 0 0 0 0 0 0 2 26 27
78 76 79 118 233 461 611 721 807 826 1067 1232 1453 1724 2022 2185 2254 2316 2335 2307 2291 2302 2277 2112 1915 1852 1447 779 454 497 509 560 708 868 820 627 280 0 0 0 0 0 0 0 0 0 0 0 0 0 0 0 0 0 0 0 0 0 0 0 0 7 22
39 41 39 95 160 353 544 640 713 907 1079 1250 1444 1678 1932 2082 2139 2185 2220 2237 2198 2174 2116 1990 1728 1552 1119 579 579 623 663 716 862 940 841 674 502 0 0 0 0 2 0 0 0 0 0 0 0 0 0 0 0 0 0 0 0 0 0 0 3 12 24
81 102 15 61 156 306 437 567 676 908 1125 1304 1467 1652 1881 2009 2045 2092 2092 2118 2135 2092 1948 1956 1870 1354 638 430 576 598 683 705 806 867 785 732 576 0 0 0 0 0 18 0 0 0 0 0 0 0 0 0 0 0 0 0 0 0 0 2 16 17 12
110 2 3 32 110 300 415 543 712 912 1150 1367 1523 1674 1837 1938 1991 2009 2043 2057 2066 2090 1991 1784 1694 1484 689 613 570 437 489 724 818 881 832 772 585 216 0 0 10 35 2 7 0 0 0 0 0 0 0 0 0 0 0 0 0 0 0 0 1 3 7
174 14 31 55 201 327 459 593 766 956 1152 1376 1578 1740 1866 1920 1958 1972 1990 2007 2005 2018 1995 1854 1640 1523 1111 939 971 540 524 790 919 1007 916 792 595 0 3 15 21 28 0 0 0 0 0 0 0 0 0 0 0 0 0 0 0 0 0 0 0 0 2
122 104 119 140 322 430 566 695 807 977 1171 1378 1604 1794 1920 1966 1975 1968 1934 1920 1921 1906 1942 1887 1782 1558 1398 1219 1082 932 641 670 957 984 892 774 641 71 7 17 5 0 0 0 0 0 0 0 0 0 0 0 0 0 0 0 0 0 0 0 0 0 1
238 286 344 404 422 528 668 764 874 1038 1234 1420 1634 1839 1990 2034 2016 1992 1943 1906 1900 1892 1864 1855 1869 1800 1605 1529 1589 1354 854 692 830 924 868 806 721 542 444 167 166 0 0 0 0 0 0 0 0 0 0 0 0 0 0 0 0 0 0 0 1 0 3
365 398 469 574 585 624 754 851 933 1091 1329 1540 1687 1873 2029 2062 2039 2017 1972 1919 1875 1870 1860 1844 1834 1810 1787 1722 1720 1591 874 612 752 832 861 881 686 642 524 150 0 447 0 0 0 0 0 0 0 0 0 0 0 0 0 0 0 0 0 0 10 37 6
473 525 583 684 718 714 751 882 1023 1125 1372 1643 1826 1945 2042 2103 2116 2096 2048 1972 1957 1914 1869 1845 1829 1874 1905 1869 1850 1719 1134 535 725 840 886 828 808 593 606 456 472 456 208 0 0 0 0 0 0 0 0 0 0 0 46 10 0 0 0 0 0 60 198
512 567 638 747 837 848 846 906 1030 1188 1314 1562 1881 2043 2118 2176 2194 2177 2154 2085 2045 1973 1917 1886 1900 1953 1989 1992 1883 1573 855 493 635 846 854 714 594 510 357 502 516 439 180 0 0 0 0 0 0 0 0 0 0 139 118 63 24 0 0 0 0 0 33
421 559 628 720 791 874 916 919 953 1121 1296 1420 1693 2016 2167 2208 2225 2189 2156 2144 2080 2048 2001 1946 1888 1914 1922 1789 1318 779 478 508 662 763 669 569 367 314 346 436 438 410 383 0 0 0 0 0 0 0 0 0 2 201 202 151 92 50 0 0 0 0 0
453 679 924 1119 1291 1256 1070 895 878 950 1092 1334 1522 1702 2057 2258 2274 2256 2207 2176 2149 2090 2054 1998 2062 1995 2029 1625 980 739 630 562 741 359 335 261 400 416 324 324 400 456 463 0 0 0 0 0 0 0 88 180 214 231 236 211 194 144 38 0 0 0 0
517 899 1132 1240 1384 1587 1721 1732 1484 1259 1120 1082 1251 1490 1666 2025 2237 2313 2325 2257 2209 2155 2103 2152 2183 2158 2049 1750 1110 1012 852 781 280 237 292 396 413 404 397 430 487 569 597 398 104 1 0 0 0 0 179 205 231 260 298 315 261 152 61 39 0 0 0
378 740 960 1203 1495 1728 1972 2201 2279 2137 1902 1842 1780 1772 1803 1711 1859 2115 2248 2297 2295 2225 2197 2249 2280 2063 1405 1487 1132 1137 1270 685 344 354 368 482 474 388 358 413 588 741 693 498 412 376 368 330 5 9 6 100 257 320 397 409 325 174 82 56 49 5 0
42 440 593 818 1038 1314 1403 1594 1967 2142 2070 2044 1988 1918 1949 1942 1899 1811 1906 2029 2098 2102 2103 2116 1976 1742 1098 872 965 943 952 812 151 446 442 409 320 172 363 540 710 902 785 558 423 363 279 19 95 54 15 120 348 423 490 523 484 311 182 150 134 97 39
2 326 465 577 847 992 1248 1534 1813 2052 2095 2199 2241 2061 2003 1980 1931 1845 1770 1795 1840 1842 1795 1720 1624 1390 1037 998 1030 905 839 1009 699 510 529 470 327 285 460 730 972 1015 703 479 318 406 390 228 89 37 92 124 466 527 561 642 561 199 144 212 232 184 165
91 0 290 21 89 676 897 1681 1904 2019 2114 2039 2042 2008 2036 1981 1936 1892 1846 1873 1903 1990 1883 1597 1445 1298 1137 746 838 854 648 1122 882 762 608 522 379 313 469 732 854 676 410 480 592 665 743 732 574 457 482 566 579 615 638 685 684 458 130 135 229 169 128
1297 1438 1336 2036 2370 1990 1348 1732 1868 1946 2016 2043 1981 1918 1974 1936 1930 1929 1912 1925 1953 1969 1912 1492 1164 1110 1118 717 492 813 873 983 881 851 780 594 332 120 407 458 495 554 677 810 913 962 1050 1111 1052 808 616 680 689 685 714 761 858 828 500 92 126 167 105
2280 2824 3092 3126 2888 2251 1978 1981 1953 1921 1918 1974 1968 1904 1902 1923 1974 2035 2045 2009 1972 1934 1830 1248 989 990 916 738 450 677 787 774 780 833 779 557 305 546 626 604 668 816 1005 1114 1166 1230 1280 1295 1170 971 758 750 785 815 850 897 909 883 618 82 0 0 0
2474 2790 3142 3266 3281 2855 2503 2283 2200 2145 2086 1997 1996 2010 1984 1990 2064 2113 2156 2128 2095 1746 1187 912 848 704 596 621 713 457 517 572 622 704 716 761 840 877 912 888 1014 1158 1259 1361 1412 1429 1360 1162 950 841 728 683 819 900 942 979 888 691 111 0 0 0 0
2694 2868 2973 3075 3125 3102 2788 2467 2340 2263 2300 2293 2273 2235 2188 2128 2138 2145 2178 2117 1648 1244 1102 934 642 394 254 319 0 456 551 621 968 1056 1043 1050 1126 1173 1228 1273 1383 1474 1502 1573 1557 1380 1169 1028 855 720 639 626 744 776 745 715 655 528 364 0 0 0 0
2441 2712 2832 2852 2939 3076 3071 2856 2632 2653 2608 2567 2613 2589 2416 2384 2278 2286 2260 1576 1157 1164 1035 709 525 583 504 530 495 404 444 848 982 1206 1220 1298 1362 1425 1484 1561 1606 1665 1695 1631 1400 1074 966 896 745 605 575 610 646 686 655 630 598 530 376 0 0 0 0
2292 2414 2605 2739 2795 2956 3082 2967 2907 2827 2808 2649 2711 2764 2783 2704 2677 2643 2286 1436 1164 1062 881 914 916 723 695 621 583 498 595 847 1129 1255 1381 1476 1557 1642 1710 1799 1811 1675 1550 1402 1313 1019 847 778 630 570 586 642 700 700 662 607 598 554 391 0 2 0 72
2421 2496 2642 2729 2835 2874 2870 2811 2752 2718 2668 2713 2495 2716 2815 2834 2684 2607 1962 1318 1109 1020 1006 1191 1124 936 788 719 528 693 971 1170 1263 1466 1678 1742 1850 2024 1960 1734 1584 1557 1547 1214 920 816 741 640 579 570 594 614 590 556 547 590 541 414 297 314 360 381 375
1918 2172 2401 2631 2709 2696 2693 2624 2442 2305 2262 2369 2377 2377 2541 2548 2557 2151 1701 1464 1168 825 1082 1084 859 831 589 390 573 756 1021 1385 1645 1793 1918 2019 1967 1881 1704 1646 1653 1584 1304 948 785 684 586 526 521 522 502 474 476 498 492 470 439 413 385 358 352 393 458
1336 1585 1841 2077 2281 2418 2462 2498 2464 2439 2436 2410 2276 2066 1886 1840 1790 1683 1600 1559 1018 689 614 574 326 600 780 948 1098 1294 1548 1875 1976 1907 1740 1663 1662 1703 1704 1709 1554 1288 1007 763 621 534 477 483 464 472 471 439 390 357 372 388 364 358 330 367 409 508 620
1153 1151 1405 1657 2009 2198 2339 2456 2588 2680 2652 2403 2111 1741 1380 1380 1472 1548 1468 827 632 156 82 427 713 936 1361 1587 1747 1907 2033 2007 1848 1611 1410 1371 1485 1650 1522 1378 1206 1043 787 677 501 450 444 442 430 392 357 342 339 138 128 286 282 262 299 356 444 554 553
971 1010 1072 1286 1555 1861 2092 2280 2360 2385 2259 2026 1669 1422 1374 1277 1261 1094 872 613 430 436 931 1036 586 472 1002 1473 1556 1833 1856 1746 1668 1464 1453 1550 1639 1478 1237 1051 805 672 577 457 397 412 414 393 366 343 0 0 0 0 0 0 0 0 163 279 371 435 448
888 877 926 1005 1099 1266 1406 1587 1719 1712 1686 1504 1445 1416 1227 1145 1108 930 738 491 343 268 84 205 702 751 1111 1657 1750 1843 1741 1636 1573 1388 1431 1428 1311 1147 908 619 452 360 335 331 361 334 287 94 0 0 0 0 0 0 0 0 0 0 0 0 24 85 90

ECMWFFLT1_con_mucape_030.txt.gz
CAPE
144 195 285 358 403 552 768 901 992 1071 1132 1218 1317 1459 1546 1641 1779 1787 1837 1871 1872 1810 1881 1976 1984 2066 2125 2112 2117 2173 2222 2303 2421 2456 2300 1768 564 0 0 0 0 0 0 0 0 0 5 0 0 15 2 22 10 2 8 78 220 443 228 319 290 338 202
107 185 284 360 432 531 715 900 1018 1106 1166 1240 1344 1530 1660 1787 1919 1962 1972 2000 2026 1991 1966 2014 2024 2041 2097 2126 2184 2271 2384 2507 2532 2349 1912 907 0 0 0 0 0 0 0 0 0 0 0 0 2 0 2 75 103 10 6 17 68 96 229 178 236 228 294
64 181 280 376 489 571 694 864 1008 1131 1222 1279 1344 1510 1720 1858 2006 2108 2123 2134 2160 2142 2074 2053 2058 2067 2121 2197 2262 2388 2543 2570 2406 2030 1270 0 0 0 0 0 0 0 0 0 0 0 0 0 0 0 0 2 17 30 10 2 16 48 60 74 177 280 126
30 136 283 396 512 624 724 863 1006 1124 1250 1330 1382 1473 1692 1874 2021 2148 2197 2202 2229 2234 2180 2100 2048 2060 2132 2262 2343 2466 2569 2503 2250 1648 772 0 0 0 0 0 0 0 0 0 0 0 0 0 0 0 276 9 0 4 2 6 0 2 6 12 40 65 92
15 62 228 386 518 632 764 885 1015 1121 1230 1342 1418 1480 1594 1820 2006 2132 2200 2220 2234 2276 2263 2186 2134 2124 2182 2304 2437 2558 2585 2417 2044 1278 552 0 0 0 0 0 0 0 0 0 0 3 0 1 0 0 2 21 7 0 1 0 0 0 0 0 13 22 66
16 72 143 327 493 607 728 878 1018 1141 1226 1328 1429 1504 1566 1710 1953 2129 2202 2215 2230 2248 2270 2249 2263 2260 2309 2436 2557 2590 2562 2334 1763 1040 140 0 0 0 0 0 0 0 0 0 0 0 0 0 0 0 0 0 8 6 0 0 0 0 0 0 1 14 50
18 78 112 219 417 572 697 824 974 1120 1214 1288 1401 1494 1570 1636 1888 2117 2216 2221 2216 2217 2240 2272 2309 2376 2440 2525 2620 2608 2528 2304 1584 875 44 0 0 0 0 0 0 0 0 0 0 0 0 0 0 0 0 0 12 13 6 0 0 0 0 0 2 0 1
12 31 96 145 292 470 625 779 913 1054 1167 1272 1342 1450 1530 1609 1803 2036 2196 2250 2253 2228 2226 2258 2310 2376 2485 2529 2582 2575 2474 2260 1510 725 0 0 0 0 0 0 0 0 0 0 0 0 0 0 0 0 0 0 0 0 0 0 0 0 0 0 0 0 0
3 22 43 117 212 360 528 691 842 944 1094 1218 1314 1409 1496 1599 1777 1999 2173 2252 2254 2231 2227 2256 2239 2339 2443 2542 2548 2521 2404 2248 1526 518 0 0 0 0 0 0 0 0 0 0 0 0 0 0 0 0 0 0 0 0 0 0 0 0 0 0 0 0 0
0 0 16 90 168 304 436 601 744 872 991 1121 1259 1330 1416 1530 1721 1958 2118 2205 2224 2202 2194 2166 2186 2260 2334 2464 2520 2489 2440 2212 1511 323 0 0 0 0 0 0 0 0 0 0 0 0 0 0 0 0 0 0 0 0 0 0 0 0 0 0 0 0 0
0 1 4 10 121 263 407 533 661 810 928 1042 1137 1212 1309 1432 1637 1878 2082 2158 2158 2159 2140 2096 2088 2152 2230 2294 2406 2434 2326 2156 1393 276 0 0 0 0 0 0 0 0 0 0 0 0 0 0 0 0 0 0 0 0 0 0 0 0 0 0 0 0 2
0 0 0 2 87 216 398 524 626 738 880 1001 1074 1136 1204 1330 1554 1782 1998 2114 2138 2117 2042 2011 2019 2045 2128 2175 2252 2319 2358 2066 1370 280 2 0 0 0 0 0 0 0 0 0 0 0 0 0 0 0 0 0 0 0 0 0 0 0 0 0 1 8 11
0 0 0 0 5 90 343 523 625 711 807 901 1005 1078 1152 1284 1494 1701 1895 2037 2100 2073 2009 1957 1938 1994 2049 2072 2179 2211 2270 2084 1463 444 81 0 0 0 510 290 0 0 0 2 0 0 0 0 0 0 0 0 0 0 0 0 0 0 0 0 0 8 34
54 0 0 0 4 45 296 472 599 702 773 842 909 1026 1128 1275 1476 1668 1815 1942 2010 2021 2007 1942 1882 1886 1958 2016 2115 2132 2002 1734 1878 289 5 72 307 510 691 605 0 2 2 12 5 0 0 0 0 0 0 0 0 0 0 0 0 0 0 0 1 12 28
2 0 0 0 0 15 118 406 519 634 734 795 880 1001 1123 1287 1474 1641 1770 1854 1910 1967 1992 1938 1911 1823 1824 1910 1864 1940 1726 1468 603 191 242 286 337 518 718 697 448 129 16 21 1 7 0 0 0 0 0 0 0 0 0 0 0 0 0 0 0 0 30
54 80 0 0 91 12 151 373 472 569 656 750 880 1020 1145 1293 1474 1627 1728 1792 1858 1914 1921 1903 1889 1881 1774 1714 1658 1645 1400 822 202 254 334 324 34 466 720 771 572 209 12 0 0 0 0 0 0 0 0 0 0 0 0 0 0 0 0 0 1 0 1
159 167 173 224 235 263 306 315 430 510 602 722 864 1026 1175 1324 1488 1635 1728 1774 1822 1844 1858 1831 1839 1774 1815 1774 1469 1226 1493 896 284 419 214 38 7 471 670 741 657 444 191 122 0 0 0 0 0 0 0 0 0 0 0 0 0 0 0 0 0 4 2
204 190 222 246 282 304 341 352 438 525 623 718 841 1000 1186 1354 1502 1619 1712 1766 1798 1803 1796 1787 1784 1782 1569 1387 1379 1244 1406 1271 771 536 262 138 388 533 635 696 690 530 400 212 0 0 0 0 0 0 0 0 0 0 0 0 0 0 0 0 0 7 75
218 248 243 257 91 172 358 420 515 581 648 744 850 1000 1184 1377 1530 1626 1687 1724 1749 1749 1755 1762 1739 1616 1686 1686 1525 1378 1087 1239 916 370 285 443 502 598 621 725 785 609 462 219 0 0 0 0 0 0 0 0 0 0 0 0 0 0 0 0 0 0 16
261 260 270 217 162 293 366 454 545 640 718 804 922 1040 1201 1421 1593 1654 1684 1732 1735 1741 1749 1715 1650 1640 1642 1633 1612 1596 1537 1048 903 610 328 429 630 636 695 760 788 635 598 499 0 0 0 0 173 390 0 0 0 0 0 0 0 0 0 0 0 2 4
319 313 332 348 381 426 480 520 570 668 800 889 1014 1234 1420 1556 1662 1735 1761 1769 1776 1768 1754 1722 1694 1646 1640 1626 1572 1582 1558 1353 929 872 633 228 503 650 738 809 777 714 673 478 0 0 1 50 373 348 0 0 49 0 1 0 0 0 0 0 0 0 0
321 392 448 486 510 554 605 622 674 720 791 882 1041 1314 1568 1708 1755 1804 1846 1828 1844 1811 1802 1798 1746 1703 1712 1666 1654 1666 1710 1524 1088 924 654 283 377 646 703 743 796 845 752 243 2 67 337 438 439 349 6 1 86 30 12 33 0 0 0 0 0 0 0
363 469 562 614 614 651 671 697 764 847 960 1020 1114 1200 1479 1692 1814 1874 1915 1933 1922 1949 1933 1912 1868 1863 1844 1862 1852 1829 1912 1643 1237 896 527 260 309 532 724 768 706 682 498 4 5 232 412 488 504 475 188 11 12 6 19 69 28 0 74 262 293 212 57
376 510 620 645 714 862 1057 1206 1317 1568 1545 1497 1408 1349 1317 1553 1770 1892 1983 2026 2052 2057 2071 2033 2027 1999 2007 1969 1911 1829 1744 1516 1195 1023 435 84 259 480 605 379 98 120 76 257 168 354 454 487 558 608 513 215 58 38 42 58 122 160 0 314 408 411 367
323 511 652 731 829 950 1174 1474 1782 1932 1840 1682 1499 1341 1335 1416 1646 1818 1916 1983 2019 2048 2070 2043 2029 2040 2032 2054 2016 1970 1908 1541 1314 1030 516 151 285 364 194 62 106 108 31 424 563 564 536 583 714 803 701 699 656 725 824 778 561 382 309 264 447 487 541
258 280 372 361 576 1002 1456 1663 1830 1840 1717 1509 1534 1403 1377 1417 1484 1615 1718 1801 1861 1918 1946 1972 1958 1982 1990 2013 2041 1974 1642 1510 1098 844 404 243 400 120 7 19 36 50 266 503 482 482 563 654 810 958 872 941 975 824 854 848 677 391 502 474 524 570 602
1578 1395 1324 1228 1118 1187 1267 1468 1509 1518 1700 1702 1554 1429 1431 1414 1452 1495 1536 1604 1665 1722 1779 1807 1828 1866 1890 1911 1941 1912 1799 1428 1124 999 710 634 316 110 134 102 101 62 188 330 405 525 659 851 925 955 1057 1151 1172 1134 1058 924 749 554 566 612 623 638 640
2016 2002 2034 1688 1342 1110 1299 1459 1472 1504 1700 1747 1665 1521 1486 1476 1453 1496 1520 1550 1555 1610 1626 1673 1692 1700 1734 1720 1786 1768 1549 1180 1095 1253 1257 1091 674 286 237 236 161 220 413 516 617 727 850 957 1062 1167 1275 1233 1137 1005 865 714 570 615 670 707 730 735 591
2327 2481 2426 2072 1656 1511 1383 1484 1566 1590 1737 1716 1682 1625 1599 1542 1508 1504 1544 1505 1518 1563 1648 1684 1754 1780 1679 1637 1676 1671 1333 1079 1040 1128 1053 1138 1088 660 371 209 304 458 596 754 880 1001 1121 1203 1255 1332 1346 1207 1039 883 762 598 466 482 527 551 522 443 388
2424 2570 2604 2601 2478 2298 2164 2005 1878 1878 1799 1811 1787 1745 1701 1593 1600 1618 1612 1642 1580 1712 1872 1923 1856 1630 1462 1433 1430 1419 1190 916 938 970 948 994 1072 1088 1042 759 502 656 816 990 1143 1257 1330 1412 1446 1393 1200 1008 915 828 626 436 419 484 508 492 478 473 423
1960 2167 2432 2528 2582 2442 2392 2390 2453 2213 2020 1948 1983 1980 1970 1917 1816 1891 1896 1843 1852 1898 1863 1794 1624 1394 1200 1084 1023 1079 1003 778 694 703 734 895 1022 1044 872 592 705 848 1086 1234 1374 1454 1509 1518 1390 1175 1026 866 808 671 488 420 451 472 448 430 435 440 401
1725 1913 1908 2176 2370 2570 2643 2675 2620 2529 2364 2278 2148 2141 2134 2152 2140 2002 1935 1928 1997 1897 1646 1454 1264 1081 843 776 800 822 819 653 606 651 768 937 860 667 742 898 1102 1303 1503 1579 1602 1581 1459 1340 1248 1177 872 763 692 544 453 446 414 374 383 390 406 372 331
1330 1436 1753 2110 2174 2314 2533 2651 2591 2470 2314 2382 2286 2238 2182 2178 2221 2224 2082 2111 2026 1700 1311 1119 1070 856 642 645 641 584 595 599 586 598 624 638 670 807 1001 1210 1520 1655 1660 1625 1522 1406 1376 1352 1133 844 753 657 524 420 390 376 362 362 343 313 289 307 314
1056 1263 1313 1433 1880 2076 2320 2415 2512 2388 2374 2354 2308 2235 2218 2193 2205 2188 2150 2148 1947 1418 1146 1050 941 711 546 534 444 432 461 368 734 379 183 552 788 1058 1334 1636 1774 1734 1644 1470 1419 1451 1413 1146 862 742 608 450 379 363 364 349 317 268 101 0 0 0 0
623 646 871 1159 1250 1528 1780 1946 2096 2181 2212 2267 2278 2253 2123 2088 2030 1990 1983 1822 1520 1369 1047 976 1037 866 598 593 577 537 377 240 786 567 514 663 1224 1604 1780 1865 1882 1642 1516 1468 1468 1431 1184 917 716 551 434 370 344 328 303 282 238 147 0 0 0 0 0
732 753 830 978 1113 1392 1618 1806 2024 2174 2299 2404 2380 2244 2032 1791 1684 1603 1584 1550 1490 1368 900 933 1118 1092 970 792 680 424 378 580 820 1136 1450 1694 1824 1866 1644 1542 1532 1555 1463 1515 1369 1134 945 724 537 398 336 308 304 244 221 34 0 0 0 0 0 0 0
626 636 678 714 850 1031 1269 1547 1788 2025 2124 2156 2141 2033 1706 1431 1375 1403 1411 1452 1478 1211 846 794 988 1006 924 824 874 1012 1369 1776 1752 1828 1641 1322 1083 892 922 997 932 1326 1367 1207 1056 894 694 512 387 340 318 264 76 0 0 0 0 0 0 0 0 0 0
638 605 596 615 673 824 1012 1210 1385 1587 1731 1754 1741 1652 1402 1295 1315 1377 1370 1262 1135 906 675 583 733 823 764 575 832 954 810 1127 1008 1148 528 0 0 105 627 1068 1431 1207 802 631 553 444 342 287 264 210 0 0 0 0 0 0 0 0 0 0 0 0 0

ECMWFFLT1_con_mucape_036.txt.gz
CAPE
1373 1402 1349 1369 1530 1694 1707 1772 1961 2117 2334 2656 2908 2846 2769 2867 2990 3054 3343 3747 3924 4096 4379 4598 4546 4452 4528 4408 4473 4624 4600 4600 4354 4281 4037 3892 3454 3437 3481 3262 3110 2833 2428 2102 1890 1376 1249 888 758 728 832 976 841 848 918 792 808 901 948 969 833 859 937
1271 1279 1300 1365 1544 1728 1872 1926 2059 2118 2313 2604 2844 2949 2706 2937 3044 3077 3340 3688 3966 4003 4275 4542 4601 4522 4506 4548 4521 4590 4780 4654 4620 4427 4204 3893 3620 3540 3464 3300 3241 3056 2651 2154 1860 1421 1342 1150 890 860 903 1059 817 914 949 941 936 989 816 1012 941 1054 804
1254 1265 1314 1407 1535 1724 1960 2002 2133 2233 2328 2380 2498 2665 2654 2916 3215 3168 3431 3641 4006 4111 4196 4599 4610 4560 4492 4556 4559 4697 4788 4752 4730 4671 4442 3955 3920 3638 3678 3483 3339 2957 2685 2195 1883 1673 1524 1383 1058 971 962 989 751 844 972 974 1059 903 786 1017 926 802 950
1180 1277 1362 1513 1711 1882 2045 2145 2266 2231 2194 2276 2456 2572 2796 3009 3251 3324 3453 3604 3966 4052 4119 4414 4650 4550 4556 4645 4716 4760 4838 4890 4798 4675 4340 4023 4080 3830 3708 3540 3369 3005 2494 2296 2008 1703 1474 1238 1159 1006 987 910 788 775 843 805 839 774 779 992 915 867 978
1050 1179 1392 1546 1668 1909 2093 2166 2230 2429 2178 2179 2402 2746 2900 3010 3232 3318 3429 3599 3636 3994 4067 4327 4408 4488 4508 4617 4672 4780 4864 4908 4785 4586 4282 4093 4092 3920 3634 3350 3272 3025 2730 2460 2034 1681 1362 1109 1076 1004 1086 944 844 789 844 843 643 790 777 952 825 662 763
1105 1325 1423 1499 1587 1855 2103 2101 2106 2227 2194 2091 2397 2789 2846 2770 2809 2826 3118 3484 3634 3832 4167 4281 4478 4480 4556 4694 4578 4619 4864 4894 4758 4520 4316 4184 4158 3735 3556 3436 3178 3059 2701 2425 1838 1524 1414 1026 749 922 946 914 660 514 673 714 616 630 742 786 637 510 404
1186 1468 1525 1624 1675 1726 1990 2120 2020 1999 2190 2174 2247 2666 2710 2559 2646 2606 2701 3238 3318 3676 3948 4031 4296 4495 4645 4692 4713 4834 4920 4796 4590 4353 4117 4070 3932 3708 3552 3423 3129 2828 2544 2184 1685 1274 1187 991 735 912 1002 767 664 478 470 664 554 508 542 547 671 604 659
1396 1744 1778 1722 1629 1603 1801 2009 1989 1946 2077 2242 2286 2512 2653 2510 2568 2568 2553 2686 3032 2912 3394 3469 4125 4511 4714 4660 4767 4775 4657 4426 4257 4170 3962 3880 3814 3614 3423 3279 2980 2722 2186 1936 1725 1294 850 901 848 978 965 716 503 476 540 645 708 568 435 563 600 653 549
1310 1639 1670 1494 1470 1455 1592 1897 1997 1954 2236 2386 2364 2642 2745 2587 2522 2644 2599 2651 2914 2814 3088 3085 3626 4438 4802 4704 4703 4697 4360 4096 3853 3586 3148 3427 3425 3224 3172 3054 2890 2468 2221 1844 1377 1362 848 845 906 1024 1112 859 550 642 730 816 919 682 526 566 607 608 476
1391 1660 1810 1567 1327 1166 1418 1714 2145 2294 2347 2646 2658 2794 2936 2750 2772 2707 2671 2629 2746 2900 2954 2990 3226 4186 4725 4592 4592 4172 3852 3814 3536 3213 2960 2945 2982 2861 2824 2769 2815 2530 2224 1584 868 1274 1200 942 1082 1179 1296 1047 681 721 869 896 924 754 574 788 875 730 608
1227 1714 1966 1682 1415 1278 1482 1851 2393 2664 2751 3040 3040 2949 3175 2993 2850 2810 2928 2776 2703 2868 2942 3146 3198 3945 4503 4408 4065 3894 3812 3697 3392 3176 2969 2974 2717 2771 2615 2426 2163 2187 1670 1308 904 1246 1420 1330 1329 1310 1412 1063 781 726 732 744 855 750 604 691 762 783 741
1850 1863 2044 1752 1618 1559 1838 2300 2776 3012 3112 3382 3324 3269 3437 3322 3012 2914 2966 3009 2844 2924 3112 3250 3283 3628 4100 3902 3746 3614 3524 3664 3198 3086 2957 2869 2674 2536 2426 2180 1714 1559 1172 1265 938 876 1012 1202 1233 1288 1286 1098 832 768 651 709 766 728 729 647 714 842 866
2072 1953 2032 1714 1928 1956 2404 2630 3195 3420 3656 3790 3492 3479 3589 3390 3184 2982 3290 3302 3028 3088 3300 3491 3467 3793 4025 3724 3438 3624 3638 3772 3368 3135 2786 2688 2642 2499 2093 1805 1684 1152 924 714 582 724 698 828 963 1091 1131 1144 1061 792 658 760 810 939 1035 978 820 891 1016
1468 1849 1928 2074 2172 2438 2785 3132 3527 3732 3984 3815 3598 3616 3638 3398 3252 3337 3492 3460 3373 3220 3327 3518 3750 4013 4056 3671 3446 3401 3573 3676 3295 2959 2674 2468 2508 2338 1972 2016 1530 1238 983 848 635 633 586 561 853 872 877 956 1080 990 814 800 954 1106 1062 840 849 912 1018
1839 1639 2027 2000 2436 2646 2935 3177 3533 3798 3796 3693 3608 3694 3667 3618 3542 3565 3656 3583 3621 3398 3415 3803 4127 4302 4124 3848 3579 3369 3184 3208 3032 2855 2890 2719 2852 2728 2457 2179 1866 1316 1132 1004 726 476 416 388 454 678 1015 1038 1161 1100 890 802 923 886 772 926 1066 1134 1070
1727 1531 1610 2061 2463 2629 2900 3106 3514 3591 3568 3602 3495 3581 3546 3566 3713 3666 3746 3683 3564 3576 3602 3990 4408 4430 4148 3718 3307 3092 2982 2538 2850 2776 2810 2527 2571 2628 2607 2244 1809 1312 1178 1092 704 752 713 369 406 532 996 1084 1190 1089 1053 995 896 837 672 792 1036 1154 1260
1785 1482 1526 2144 2616 2756 2842 3002 3217 3448 3552 3578 3464 3706 3679 3804 3839 3755 3553 3536 3670 3736 3662 4045 4450 4110 3862 3670 3343 2956 2819 2332 2387 2571 2648 2626 2543 2519 2577 2272 1982 1448 1367 1311 991 963 1134 999 826 729 971 1012 982 1086 1060 1024 963 881 817 716 506 848 702
1602 2014 1798 2175 2410 2626 2747 2858 3327 3477 3503 3404 3590 3868 3865 3911 3897 3872 3638 3733 3608 3745 3686 4131 4392 4014 3734 3442 3211 2873 2604 2544 2204 2134 2650 2799 2750 2539 2582 2402 2060 1677 1683 1534 1478 1387 1326 1216 1214 1244 1072 1009 971 1042 1138 1108 954 876 726 430 3 174 864
1764 2238 2161 2506 2578 2682 2725 2912 3194 3372 3272 3258 3499 3804 3793 4024 3934 3979 3798 3758 3717 3804 3838 4128 4171 3968 3784 3606 3204 2700 2599 2573 2382 2174 2279 2796 2788 2379 2282 2132 1978 1733 1602 1554 1560 1397 1607 1453 1425 1629 1463 1210 1168 1014 978 1044 906 780 522 116 0 0 232
1954 2004 2158 2250 2568 2685 2918 2832 2898 3150 3062 3310 3567 3602 3652 3752 3858 3945 3695 3484 3615 3847 3958 4335 4138 3779 3578 3490 3130 2803 2601 2622 2207 2207 2142 2527 2753 2459 2285 2186 2088 1723 1225 1337 1522 1377 1550 1232 1282 1564 1545 1332 1248 1123 1045 1010 647 526 416 0 0 0 80
2240 2186 2348 2427 2772 2653 2844 2879 2941 3058 2926 2992 2898 3126 3411 3659 3706 3842 3488 3554 3744 3882 4185 4349 4241 3808 3546 3276 3012 2508 2561 2356 2315 2176 2180 2282 2655 2618 2370 2246 2156 1875 1365 1091 1078 1438 1490 1196 1600 1576 1553 1306 1204 1296 1304 1270 614 484 380 0 0 0 4
1875 2115 2178 2344 2917 2699 2835 2664 2886 2868 3244 2946 2826 3171 3326 3494 3425 3414 3572 3820 4023 4089 4285 4241 4191 3798 3269 3092 2930 2745 2311 2291 2231 2220 2217 2282 2399 2606 2388 2122 1752 1662 1511 1276 1032 880 1050 1598 1296 1434 1504 1460 1408 1222 1266 1188 673 482 369 0 0 0 16
792 1837 2020 2360 2395 2418 2800 2909 3071 3336 3458 3212 3100 3212 3302 3360 3304 3442 3593 3813 3796 4036 4020 4060 4046 3684 3363 3087 2883 2380 2305 2174 2220 2296 2337 2392 2452 2366 2194 1861 1848 1770 1682 1593 1220 748 905 1094 593 1339 1449 1323 1410 1425 1362 1381 1452 694 421 311 83 0 247
617 1339 1585 1916 2166 2649 3137 3050 2994 3509 2982 3069 3078 3006 3066 3150 3223 3455 3704 3666 3754 3738 3836 3880 3927 3787 3552 3267 2890 2470 2314 2272 2229 2264 2274 2372 2610 2533 2364 2241 1744 1814 1701 1649 1148 841 556 1000 1106 1534 1368 1129 1252 1196 1276 1627 1412 1201 874 477 36 24 628
1023 1196 1744 2281 2784 3123 2848 3294 3286 2762 2773 2695 2704 2809 3190 3147 3350 3692 3822 3672 3574 3648 3846 3834 3854 3767 3535 3251 2894 2207 2340 2344 2381 2327 2300 2458 2611 2546 2381 1987 1608 1680 1650 1504 1280 952 978 993 816 1273 1373 1268 1298 1397 1446 1497 1234 984 932 848 772 654 676
1806 2250 2549 2740 2430 2472 2793 2892 2641 2390 2966 3118 3534 3639 3551 3519 3649 3700 3755 3779 3786 3762 3942 3841 3818 3828 3622 3232 2810 2212 2162 2438 2452 2390 2406 2579 2534 2252 1879 1803 1662 1542 1457 1404 1375 1019 660 864 702 1317 1220 1308 1369 1256 1511 1572 1700 2541 1127 1020 904 868 878
1757 1788 1756 1604 1864 2837 3577 3417 3298 3420 3490 4402 4222 3810 3727 3788 4004 4066 4189 4130 3977 3996 4026 3937 3836 3752 3530 3059 2551 2364 2510 2446 2405 2382 2358 2387 2358 2006 1945 1820 1658 1547 1492 1228 949 940 916 1344 1270 1288 1102 1067 1010 1611 1512 1118 1750 2870 1223 1174 979 706 928
2317 2571 3023 3481 3379 2985 2724 2816 3610 4076 4277 4265 4097 3936 4128 4360 4463 4518 4406 4232 4084 4168 4027 3982 3825 3379 3134 2455 2557 2438 2472 2399 2353 2297 2279 2190 1906 1919 1894 1747 1639 1483 1389 1273 1016 1067 1303 1423 1359 1244 1195 1267 1350 1075 1542 1671 1334 1354 1284 956 957 1161 1177
3479 3319 3269 3298 3504 3414 3624 3800 3703 3591 3830 4040 4197 4332 4466 4604 4474 4320 4168 4071 4166 4121 4213 3898 3421 3051 2944 2541 2671 2670 2572 2538 2430 2243 2146 1874 1854 1826 1795 1679 1558 1307 1451 1405 1490 1520 1372 1689 1437 1240 1206 1357 1316 1342 1560 1838 1956 1080 1520 1114 1161 1021 855
2956 2896 2895 2913 3070 3169 3103 3204 3161 3310 3512 3762 3850 4000 4104 4226 4038 3837 3934 4340 4305 4132 3982 3798 3474 2850 2618 2495 2635 2655 2600 2470 2349 2272 2144 1826 1804 1695 1641 1498 1393 1243 1206 1159 1019 1283 1396 1689 1568 1498 1291 1079 1112 1415 1410 1337 1437 1173 954 870 738 536 417
3059 3112 3146 3146 3108 3098 3202 3215 3235 3158 3215 3445 3729 3752 3702 3817 3864 3811 4276 4257 3776 3608 3688 3530 3274 2869 2398 2622 2644 2637 2447 2279 2204 2118 1998 1720 1716 1637 1498 1260 1076 1209 1222 1071 988 1300 1436 1628 1480 1376 1357 1210 1536 1538 1249 1761 1754 1175 728 469 301 297 354
3122 3208 3217 3428 3474 3356 3315 3253 3097 2970 2920 3008 3189 3404 3646 3629 3777 4120 3985 3256 2983 3031 3110 3145 2998 2534 2222 2478 2437 2236 2096 1972 1876 1944 1854 1618 1577 1516 1391 1142 983 1009 924 847 1234 1502 1446 1339 1272 1042 1172 906 1330 1509 1644 1284 940 654 647 363 181 198 268
3267 3388 3732 4072 3956 3655 3561 3436 3174 2928 2547 2308 2292 2504 2927 3311 3440 3206 2609 2504 2567 2640 2782 2758 2312 2174 1973 2367 2220 2183 2046 2020 1970 1845 1720 1664 1443 1468 1356 1354 962 907 1108 837 1248 1638 1409 812 898 1347 1414 1424 1438 1268 1443 758 544 750 772 806 760 743 459
3434 3608 3934 4038 3888 3807 3663 3354 2933 2649 2404 2316 2312 2474 2551 2488 2340 2247 2264 2222 2166 2261 2321 2264 1963 1941 1811 1722 1902 1961 2005 1874 1811 1707 1464 1372 1300 1154 984 891 864 894 1004 979 1202 1078 702 856 1030 1210 1250 1151 1133 998 713 824 874 916 784 697 702 646 841
3474 3668 3608 3864 4273 4306 4060 3922 3674 3363 3052 2795 2629 2462 2220 1953 1754 1799 1785 1727 1858 2163 2224 1987 1750 1870 1784 1706 1694 1762 1706 1683 1454 1518 1475 1391 1104 1114 939 857 990 972 1146 898 1488 2024 1208 976 1472 1346 1314 1192 1100 957 1148 1159 1208 1019 536 502 411 476 769
2950 3053 3153 3324 3484 3674 3742 3713 3656 3440 3189 3001 2765 2440 2122 1891 1781 1720 1546 1690 1854 2110 2162 1820 1684 1648 1358 1380 1260 1127 1134 1428 1274 1441 1223 1048 980 983 986 836 716 662 648 240 436 711 876 1182 1976 1623 968 826 1076 1358 1308 1201 785 684 420 0 0 0 0
2663 2544 2449 2636 2934 3231 3466 3542 3574 3546 3338 3070 2813 2521 2282 2043 1784 1725 1648 1736 1844 1897 1844 1700 1470 1372 891 1009 1080 1011 1229 1233 1335 1261 1307 911 892 704 704 714 422 755 696 536 464 597 755 942 873 886 718 599 938 588 724 650 583 296 0 0 0 0 0
2140 1993 1940 2246 2650 2922 3128 3338 3396 3342 3202 3061 2847 2566 2365 1983 1875 1788 1505 1555 1582 1694 1635 1543 1458 1400 1174 833 1464 1422 1261 1238 1252 1012 841 855 733 618 472 251 0 0 347 558 896 1108 1132 1018 797 742 671 442 461 128 61 0 0 0 0 0 0 0 0

ECMWFFLT1_con_mucape_042.txt.gz
CAPE
279 367 468 872 1164 1212 1300 1744 1959 1807 1944 2266 2584 2574 2155 2391 2706 3137 3597 4305 4567 4877 4886 4600 4370 4478 4517 4567 4583 4318 4223 4489 4558 4396 4246 4196 3926 3869 4079 3988 3874 3718 3224 3200 2607 2276 2126 2256 1964 1594 1596 1469 1112 1597 1552 1508 1554 1477 1333 978 918 1210 842
284 469 392 384 1225 1473 1474 1876 2374 1915 1812 2220 2388 2484 2142 2259 2747 3146 3548 4340 4657 4926 5060 4721 4482 4473 4515 4498 4418 4340 4246 4413 4478 4214 4256 4219 4102 4217 3978 3963 3843 3826 3492 2997 2826 2563 2225 2180 2163 1862 1558 1474 1136 1366 1537 1528 1622 1404 1223 1201 910 928 1094
484 414 340 434 816 1218 1415 1250 1927 2129 1734 2094 2219 2279 2160 2303 2817 3231 3510 4232 4706 5013 5092 4921 4526 4498 4556 4681 4400 4431 4303 4264 4383 4360 4206 4142 4150 3539 3850 4014 4013 3828 3438 3170 3095 2486 2413 1980 2090 1996 1704 1293 940 1422 1494 1634 1522 1314 1270 1196 1067 1169 1235
379 317 480 777 1098 1365 1427 1550 2300 2051 1489 1157 1948 2062 2358 2656 2821 3302 3544 4036 4635 4992 5182 5161 4744 4468 4592 4678 4494 4470 4417 4246 4327 4095 3900 3882 3962 3712 3770 3968 3966 3682 3518 3152 3033 2374 2049 2111 2019 1988 1928 1564 1216 1245 1251 1409 1186 1232 1240 1304 1092 1037 1154
923 940 685 973 1163 1596 1648 1779 2497 2181 1510 1364 1539 2213 2658 2878 2897 3110 3590 3826 4158 4620 4989 5112 4530 4614 4749 4815 4532 4466 4502 4428 4259 4087 3973 3971 4015 3872 3928 3627 3916 3558 3486 3213 2894 2763 2430 2249 1846 1830 1596 1694 1460 1278 1475 1456 1219 1264 1096 1176 1059 880 1156
1232 916 716 813 930 1290 1607 1502 1612 1882 1526 1331 1310 2377 2614 2606 2461 2414 2956 3710 3988 4519 5061 5274 5122 5009 4941 4865 4510 4563 4684 4743 4469 4333 4158 4074 4067 3880 3787 3744 3595 3525 3456 3254 2965 2672 2560 2233 1788 1684 1374 1396 1152 1098 1208 1383 1176 1132 1119 1154 1158 986 894
720 809 908 677 690 697 1179 1635 1538 1660 1603 1344 1288 2166 2351 2285 2142 2088 2353 3021 3602 4492 4749 5169 5228 4908 4819 4725 4672 4874 4989 4955 4863 4592 4300 4140 3928 3876 3738 3696 3667 3707 3394 3350 2901 2434 2344 2228 1944 1579 1428 1066 1174 1154 1122 1311 1375 1181 1423 1338 1106 1286 1001
327 656 1178 1447 1346 606 652 1526 2017 1733 1648 1611 1364 1485 1958 2246 2196 2046 2038 2644 3230 3745 4354 4608 4844 5117 4719 4997 4881 4783 5022 4942 4869 4793 4481 4251 4058 3760 3790 3807 3844 3954 3736 3358 3084 2464 2216 2204 2126 1790 1571 1114 1258 1212 1375 1564 1435 1407 1455 1296 1225 1191 1071
477 749 1029 917 754 827 1126 1359 1892 2102 2300 2361 2078 2086 2041 2045 2194 2153 2107 2320 2940 3718 4321 4575 4836 4934 4972 4934 4859 4740 4818 5012 5026 4702 4525 4293 4176 3632 3495 3828 3962 4024 3818 3341 2969 2584 2308 2189 2060 2016 1719 1336 1301 1337 1430 1568 1511 1275 1421 1258 1366 1110 911
625 1259 1072 436 478 290 908 1174 1623 2684 2834 2706 2600 2683 2668 2798 2790 2426 2533 2558 2916 3579 4266 4644 4832 4981 5166 5017 4948 4698 4783 5044 5096 4841 4352 4120 4086 3470 3127 3141 3890 3906 3829 3411 2890 2765 2588 2320 2138 2115 1798 1624 1477 1440 1375 1525 1412 1262 1266 1335 1274 1185 960
994 1694 1451 796 1076 1272 1704 1352 1733 3179 3357 3057 2928 3026 3255 3369 3460 3099 3108 2661 2856 3568 4102 4401 4344 4858 4983 4795 4428 4645 4864 4919 5008 4996 4792 4169 4046 3806 3140 3326 3445 3724 3538 3372 2987 2868 2652 2470 2223 2105 1862 1668 1692 1360 1340 1476 1462 1317 979 1348 1277 1116 983
2490 2724 2277 2298 2628 2277 2010 1964 2940 3787 3993 3712 3186 3186 3787 3785 3703 3524 3369 3014 2732 3474 3768 3768 3526 4394 4637 4790 5032 4970 5024 4908 4781 4932 4705 4394 4134 3884 3395 3181 3635 3684 3466 3279 3135 2994 2569 2553 2226 1942 1739 1588 1594 1452 1135 1275 1364 1271 1004 1121 1092 1033 894
2585 3306 2735 3034 3063 3074 2864 3535 4396 4003 4270 4249 3489 3196 3720 3782 3494 3206 3326 3074 2809 3086 3219 3586 3366 4075 5111 5157 4502 4929 4994 5016 4818 4938 4822 4703 4458 4236 3838 3346 3272 3514 3328 3099 2953 2946 2610 2436 2203 1726 1644 1470 1531 1510 994 959 1319 1279 1114 1000 919 1018 965
3474 4118 3766 3814 3724 3798 3623 4094 5253 4810 4558 4578 4192 3626 3568 3688 3329 3088 3052 2794 2481 2591 2803 3068 3208 3835 4924 5122 4707 4858 5096 5076 4884 5034 4948 4754 4689 4492 4008 3512 3422 3636 3801 3413 3310 2960 2666 2272 2037 1642 1550 1414 1414 1336 1073 1046 1299 1421 1214 1043 1017 1054 1136
3737 3680 4050 3773 4068 3939 3946 4227 5880 5820 4990 4856 4702 4125 3906 3803 3518 3298 3196 2663 2322 2168 2486 2770 3170 3649 4710 5136 5030 4953 5128 5293 5171 4996 5082 5054 4882 4588 4386 4082 3861 3929 3999 3719 3332 2777 2579 2246 1915 1566 1460 1377 1354 1143 1003 1064 889 1340 1244 1118 1122 1036 1054
3352 3572 3513 3480 4002 4289 4343 4133 4995 6180 5555 5455 5026 4632 4086 4110 3935 3645 3446 3040 2725 2370 2352 3002 3353 3654 4499 5129 5199 5276 5408 5544 5500 5396 5469 5257 5028 4794 4608 4380 4070 3900 3937 3678 3280 2902 2626 2155 1927 1560 1412 1351 1320 1126 1066 762 881 1175 959 941 1144 1196 1160
904 253 1938 2668 4146 4152 4314 4123 4325 5665 5757 5461 5217 4842 4397 4255 4260 4007 3420 3259 2645 2624 2597 3316 3772 3824 4547 5204 5441 5629 5788 5884 5944 5880 5696 5348 5126 4982 4738 4364 4152 3895 4042 3846 3416 2969 2731 2261 1994 1518 1285 1281 1230 1175 965 1153 839 773 634 682 768 1023 1091
2 1400 1235 1657 3450 3840 4006 4080 3999 4984 5494 5394 5160 5134 4640 4750 4708 4455 3642 3398 2903 2629 2740 3697 3976 4029 4649 5499 5735 5998 6130 6168 6151 5981 5819 5411 5118 5000 4758 4415 4198 4075 4177 4056 3703 3417 2705 2344 2069 1679 1304 1226 1273 1108 950 1181 882 846 603 580 697 778 1106
33 147 758 3694 4233 4265 4144 3725 3938 4829 5240 5016 5128 5154 4988 5000 4883 4630 4100 3797 3498 3165 2903 4010 4223 4346 5002 5888 6032 6206 6358 6390 6142 5816 5609 5241 5048 5018 4935 4685 4412 4320 4284 4022 3821 3434 2716 2486 2168 1821 1434 1338 1462 1079 1186 969 976 878 640 341 744 847 986
146 62 39 281 4440 4346 4432 4242 3884 4725 5236 5252 5094 4691 4676 4816 4864 4691 4377 4351 4298 3886 3320 4382 4778 4808 5355 6164 6273 6414 6362 6164 5732 5524 5366 5111 4931 4863 4849 4711 4494 4374 4149 3831 3686 3267 2806 2510 2244 1882 1560 1444 1474 920 1199 1036 998 839 510 358 656 520 732
896 982 1018 668 1036 4408 4968 5182 4972 5444 5821 5326 4778 4682 4551 4818 5000 4694 4573 4636 4656 4326 4144 4881 5173 5268 5815 6288 6363 6182 5921 5777 5540 5358 5178 4942 4827 4670 4633 4569 4566 4416 3964 3708 3405 2976 2820 2521 2265 2022 1704 1456 1230 1073 1428 1521 1083 843 478 464 448 0 18
0 11 183 360 607 1050 5756 5549 5378 5465 5978 5202 5080 4399 4374 4710 4380 4060 4270 4464 4624 4501 4774 5490 5573 5575 6130 6262 6080 5922 5746 5539 5399 5195 4975 4770 4622 4521 4438 4456 4556 4320 4017 3554 3168 3002 2779 2503 2232 2052 1777 1509 1370 1311 1675 1250 1146 1024 716 463 368 76 92
0 0 0 73 206 986 6384 5560 5661 5442 6031 5513 4923 4662 4660 4651 4312 4366 4042 3912 4126 4538 5328 5796 5764 5799 6127 6112 5831 5634 5536 5306 5123 4933 4703 4404 4231 4115 4014 4237 4478 4472 4264 3833 3374 2936 2787 2556 2283 2003 1828 1714 1656 1456 1381 1354 1370 1185 595 348 434 120 340
0 0 0 4 88 203 3509 5784 5610 5674 5856 5419 5046 4755 4760 4696 4754 4811 4529 4268 4350 4459 5079 5741 5953 6183 6297 6064 5693 5461 5195 4975 4621 4415 4264 4056 3936 3785 3632 3651 4088 4292 4285 4099 3392 2938 2772 2681 2513 2282 2082 1878 1698 1560 1524 1562 1578 1473 1194 680 421 372 490
0 0 0 0 14 196 3788 5648 5516 6001 5632 5373 5010 4913 5257 5068 4868 4696 4862 4797 4367 4036 4764 5662 6185 6319 6062 5756 5450 5164 4858 4589 4380 4053 3842 3848 3691 3396 3446 3474 3750 3981 4029 3837 3658 3146 2798 2634 2523 2342 2210 2051 1854 1635 1465 1382 1326 1247 1064 953 875 734 836
424 0 6 148 398 4731 5541 5795 5797 5523 5295 5231 5152 5078 5518 5126 5066 4565 4673 4810 4792 4762 5455 5977 6096 5911 5536 5252 5068 4772 4508 4270 4070 3879 3708 3865 3618 3425 3578 3576 3396 3725 3783 3710 3465 3431 2826 2588 2398 2334 2286 2216 1926 1700 1611 1423 1207 1047 1124 866 464 694 1212
1106 614 497 104 1203 5154 6248 5930 5786 5181 4743 4983 5162 5023 5040 4919 5024 4928 4975 5267 5096 5316 5697 5956 5864 5595 5366 5052 4578 4436 4194 3946 3866 3590 3541 3604 3430 3352 3315 3378 3376 3498 3826 3551 3272 2997 2878 2641 2445 2293 2193 1943 1431 1064 886 883 952 873 922 691 380 416 715
1198 1591 1131 315 3420 5100 5389 4848 5346 5156 4502 5080 5155 4962 5216 5243 5175 5411 5456 5464 5566 5747 5941 6022 5714 5267 4992 4754 4490 4120 3799 3564 3762 3417 3340 3489 3580 3606 3541 3636 3673 3680 3812 3508 3287 2759 2699 2606 2413 2270 1986 1365 1071 904 1033 724 629 695 754 730 716 649 400
2258 2374 3768 5289 4968 4850 4287 4536 4766 4310 4086 4926 5232 5140 5296 5470 5330 5376 5299 5615 5865 5767 5780 5443 5154 4942 4708 4448 4104 3733 3525 3461 3419 3309 3342 3604 3665 3674 3678 3856 3917 3900 3763 3383 2970 2566 2384 2231 2077 1892 1624 1389 1230 1041 830 764 724 722 566 538 475 650 418
2414 2917 4220 3603 4016 3984 3660 4460 4403 4125 4533 4702 5044 5307 5456 5518 5229 5220 5379 5611 5448 5305 5090 5010 4934 4716 4346 4004 3884 3716 3395 3422 3236 3363 3439 3566 3524 3592 3788 3851 3700 3619 3460 3285 2968 2719 2536 2370 1734 1510 1341 1232 1071 1122 941 748 708 590 485 452 424 362 209
3474 2418 2966 3784 4253 4523 4550 4591 4873 4966 4940 5238 5393 5518 5472 5314 5112 4992 5331 5254 5013 4764 4710 4634 4560 4381 4215 3968 3720 3476 3278 3258 3136 3228 3274 3392 3428 3396 3307 3224 3216 3140 3048 3093 2904 2688 2429 1934 1726 1574 1439 1350 1004 1300 1346 1077 540 435 404 374 290 0 0
3290 3010 2635 3390 4374 4476 4611 5078 5210 5049 5184 5468 5595 5482 5341 5368 5230 5026 5058 4892 4545 4560 4527 4435 4318 4108 3994 3790 3504 3349 3168 3223 3101 3204 3278 3160 3078 3260 3144 3058 2912 2874 2837 2854 2648 2529 2441 2276 1692 1570 1455 1262 1128 1060 972 820 489 353 300 142 0 0 0
2382 2392 2285 2086 2523 2839 4309 4683 4554 5154 5199 5294 5256 5220 5142 5024 4959 4972 4878 4756 4635 4562 4502 4208 3998 3892 3915 3673 3408 3293 3172 3049 3035 3046 2918 2812 2793 2866 2811 2820 2681 2768 2720 2552 2374 2343 2203 1722 1648 1554 1392 1148 936 962 731 637 784 554 442 0 0 0 400
2198 2488 2956 2969 2631 3079 3506 3588 3828 4130 4482 4341 4619 4465 4667 4855 4688 4650 4513 4287 3965 4072 4169 3936 3803 3594 3346 3146 3108 2988 2958 2716 2962 2989 2751 2530 2406 2381 2331 2483 2340 2532 2494 2423 2320 2054 1826 1664 1647 1548 1361 1144 930 752 587 741 790 700 350 146 141 7 510
2200 2572 2804 2889 2814 2920 3110 3248 3262 3392 3867 3516 3578 3577 3889 3798 3518 3368 3544 3408 3381 3698 3385 3190 3072 3044 2878 2770 2772 2818 2785 2678 2816 2395 2309 2128 2025 1838 1780 1848 1938 1941 1936 1762 1686 1838 1616 1555 1466 1358 1236 1065 1232 807 499 667 751 732 510 258 31 468 297
2178 2350 2360 2400 2422 2656 2664 2541 2496 2690 2698 2821 3029 3372 3449 3231 3321 3307 3349 3240 3216 3178 3129 2950 2739 2642 2368 2272 2259 2330 2366 2260 2212 2208 2123 2040 1832 1662 1686 1728 1730 1703 1666 1634 1494 1439 1425 1428 1488 1351 980 1398 1201 956 899 783 1082 863 689 713 552 0 0
2010 2019 1800 1542 1602 1696 2009 2152 2549 2767 2798 2929 2859 2786 2872 3070 3011 3258 3080 3266 3260 3113 3250 3167 2820 2453 2157 2062 1941 1898 2238 1938 1877 2020 1977 1849 1687 1594 1639 1651 1601 1532 1421 1409 1346 1317 1314 1269 1147 1066 951 738 637 699 778 824 974 1019 929 706 320 8 322
1284 2237 2719 2447 2666 2771 2949 2967 2928 2963 2957 2966 3032 3100 3146 2870 3120 3432 3338 3464 3410 3400 3551 3312 3106 2606 2220 1870 2101 2138 2262 1880 1812 1819 1786 1628 1428 1416 1470 1460 1421 1311 1304 1318 1178 1138 1124 1100 1071 998 916 760 422 509 692 705 679 648 623 649 577 649 713

ECMWFFLT1_con_mucape_045.txt.gz
CAPE
160 128 331 407 363 504 715 657 850 677 1140 1363 1332 1398 1626 1766 1811 2044 2275 2619 2697 2675 2764 2913 3014 2974 2729 2570 2656 2940 3068 3080 3095 3018 2739 2703 2616 2688 2551 2220 2479 2483 2380 2401 2177 2150 1727 1507 1226 990 606 799 437 251 546 700 348 511 732 502 656 492 434
132 226 366 476 471 631 913 823 908 904 1028 1421 1433 1433 1632 1800 1963 2168 2333 2610 2814 2826 2883 2928 3035 3077 3010 2920 2829 2986 3094 3108 3092 3061 2886 2751 2571 2776 2594 2351 2575 2552 2447 2322 2225 2108 1821 1490 1176 793 476 788 711 483 291 978 492 494 410 556 485 465 451
124 221 393 660 643 716 1189 1074 998 1100 1112 1402 1558 1543 1652 1804 2025 2283 2459 2688 2916 2998 3075 3013 3065 3082 3078 3155 3119 3137 3141 3137 3116 3041 2979 2859 2688 2811 2755 2642 2658 2648 2560 2274 2228 1917 1776 1486 1141 767 544 416 741 640 287 776 734 678 336 327 171 452 295
299 371 407 707 727 627 1196 1284 1191 1165 1318 1415 1644 1654 1700 1827 1986 2336 2684 2827 2994 3142 3228 3164 3124 3115 3075 3163 3265 3301 3216 3163 3166 3031 3021 2946 2888 2855 2920 2855 2782 2752 2592 2402 2265 1910 1548 1484 1142 830 1048 534 510 773 656 465 913 738 531 362 134 208 382
496 586 549 559 664 724 956 1337 1354 1263 1327 1500 1677 1762 1762 1866 1932 2259 2811 3059 3123 3238 3369 3334 3192 3165 3134 3186 3326 3375 3261 3159 3160 3118 3038 2983 2993 2846 2975 2920 2845 2819 2586 2473 2210 1989 1347 1532 1247 942 808 736 668 572 772 680 708 752 648 408 204 222 315
579 634 710 693 630 595 761 1004 1383 1377 1326 1486 1685 1854 1840 1890 1946 2143 2674 3184 3262 3351 3481 3495 3337 3224 3223 3255 3349 3410 3322 3114 3118 3174 3079 3024 3004 2906 2901 2955 2824 2841 2680 2435 2230 1852 1327 1343 1053 873 834 790 733 550 609 852 651 731 599 572 336 224 298
574 616 595 437 130 461 913 928 1148 1361 1334 1397 1618 1843 1901 1887 1939 2085 2440 3057 3328 3432 3570 3676 3532 3322 3271 3308 3336 3365 3330 3137 3034 3125 3099 3022 3022 2942 2911 2919 2877 2848 2712 2462 2267 1984 1551 1180 1163 974 843 764 721 650 605 806 770 676 546 692 431 201 283
180 257 394 205 156 257 868 1035 1034 1314 1414 1414 1606 1791 1875 1864 1875 2009 2256 2739 3295 3446 3606 3781 3753 3468 3321 3330 3340 3310 3305 3178 3017 3070 3071 3030 2977 2982 2856 2878 2963 2884 2806 2494 2386 2049 1740 1444 1215 1066 941 784 726 658 617 726 819 696 569 524 643 368 368
93 165 220 223 211 255 591 1003 1067 1151 1485 1457 1614 1764 1813 1810 1816 1897 2150 2453 3007 3379 3567 3763 3880 3670 3384 3308 3335 3301 3276 3216 3068 3030 3093 3038 2999 2996 2901 2876 2940 2950 2853 2704 2371 2188 1913 1611 1388 1242 1160 926 816 691 614 759 789 768 640 527 574 592 556
74 111 209 273 271 271 565 892 976 1170 1388 1460 1561 1699 1746 1797 1813 1838 2041 2323 2668 3105 3445 3683 3880 3847 3551 3344 3342 3304 3265 3242 3159 3064 3083 3039 3009 3019 2980 2893 2903 2984 2893 2834 2608 2335 2038 1754 1556 1428 1299 1044 903 775 647 726 790 788 710 613 612 596 622
92 230 271 287 263 386 789 976 957 1225 1644 1477 1320 1497 1740 1811 1839 1821 1875 2107 2462 2797 3251 3540 3755 3912 3784 3551 3420 3348 3279 3280 3261 3203 3139 3066 2985 2985 2996 2917 2864 2950 2928 2890 2745 2540 2267 1983 1754 1574 1364 1117 863 780 718 744 760 796 726 713 718 667 627
279 287 453 452 516 575 782 1048 1112 1316 1698 1742 1598 1512 1576 1824 1896 1922 1881 1885 2172 2564 2954 3416 3616 3883 3934 3747 3565 3435 3354 3338 3346 3346 3304 3203 3073 2997 2936 2895 2819 2874 2982 2905 2806 2655 2431 2206 1960 1734 1476 1229 974 740 711 801 802 779 795 758 758 758 689
379 437 613 626 528 560 790 1201 1485 1638 1713 1746 1757 1705 1650 1762 1964 2049 2019 1954 1953 2228 2674 3259 3614 3905 4084 3922 3668 3516 3400 3385 3429 3450 3449 3367 3228 3083 2955 2819 2817 2835 2946 2974 2843 2706 2543 2328 2067 1854 1635 1357 1103 868 675 776 856 760 763 901 815 755 740
754 552 662 667 599 658 957 1364 1619 1786 1944 1862 1775 1744 1747 1736 1989 2085 2096 2053 1985 2034 2454 3102 3635 3966 4207 4124 3847 3592 3475 3378 3431 3502 3532 3474 3349 3198 3069 2854 2724 2860 2922 2959 2886 2747 2596 2371 2169 1968 1782 1582 1324 1077 799 722 836 786 709 808 823 770 706
598 583 608 638 678 697 928 1036 1612 1892 2214 2303 2037 1865 1825 1808 1858 2098 2140 2114 2032 2000 2352 3026 3676 3997 4250 4252 4020 3706 3545 3440 3399 3524 3606 3543 3402 3261 3143 2991 2764 2827 2957 2949 2906 2752 2619 2496 2260 2091 1925 1754 1559 1299 996 743 753 736 627 427 759 794 750
985 723 692 539 581 675 1041 1067 1086 1251 1956 2619 2328 2144 2243 2235 2184 2197 2285 2291 2220 2155 2338 2955 3613 3892 4151 4277 4104 3822 3583 3485 3427 3505 3642 3658 3540 3388 3308 3159 2925 2932 3043 2986 2897 2794 2665 2534 2412 2222 2024 1852 1673 1470 1216 906 711 696 366 443 480 713 683
1982 1324 2016 2480 1972 1368 1241 1254 1272 1767 2275 2698 2632 2340 2372 2562 2565 2560 2596 2595 2546 2425 2490 2883 3424 3707 3862 4165 4138 3911 3616 3518 3470 3494 3604 3702 3690 3554 3464 3388 3143 2984 3148 3112 2958 2802 2709 2600 2489 2370 2210 2045 1861 1661 1464 1296 990 720 409 442 508 508 430
2817 2774 2782 3036 2784 2455 1834 1816 2945 3236 2904 3021 2916 2574 2439 2658 2798 2825 2843 2873 2821 2695 2578 2805 3183 3461 3550 3855 4169 4043 3798 3662 3598 3542 3562 3686 3776 3712 3592 3508 3342 3098 3186 3266 3146 2942 2757 2681 2600 2513 2399 2285 2138 2005 1849 1570 1244 868 640 517 504 467 338
2591 2588 2610 2818 2762 2706 2565 2566 3521 4349 3662 3303 3365 3026 2660 2640 2851 2936 2944 2924 2961 2888 2762 2728 2945 3199 3302 3504 4157 4199 4020 3843 3786 3687 3623 3660 3793 3839 3733 3604 3445 3250 3224 3371 3322 3199 3043 2850 2763 2694 2620 2537 2431 2270 2010 1753 1536 1263 991 814 637 466 319
1544 1194 1703 2415 2762 2674 2767 2745 2790 4068 4167 3705 3573 3500 3079 2800 2849 2979 2967 2924 2889 2880 2858 2766 2716 2953 3097 3281 3993 4238 4174 4020 3963 3908 3816 3812 3900 3972 3883 3702 3580 3410 3343 3450 3406 3317 3220 3112 2992 2893 2841 2746 2518 2308 2246 2181 2042 1791 1523 1181 952 788 524
358 458 588 473 1517 2530 2784 2664 2451 2753 3744 4005 3865 3711 3498 3182 3036 3000 2968 2882 2812 2756 2724 2671 2627 2649 2891 3158 3839 4205 4279 4228 4176 4174 4149 4146 4136 4148 4082 3893 3718 3592 3477 3549 3549 3475 3379 3284 3192 3082 2931 2781 2650 2573 2497 2455 2248 2026 1824 1486 1248 668 571
93 324 930 1090 1191 2162 2558 2569 2443 2349 2926 3728 3965 3845 3702 3545 3337 3220 3168 2952 2798 2686 2573 2484 2382 2619 2786 3210 3868 4286 4474 4492 4481 4510 4546 4501 4377 4310 4238 4068 3892 3717 3604 3653 3604 3527 3450 3365 3251 3138 2999 2870 2748 2689 2639 2512 2296 2079 1865 1519 1014 477 710
0 0 0 402 1542 1827 2641 2814 2600 2488 2582 3250 3683 3812 3776 3714 3555 3464 3444 3271 3041 2835 2588 2426 2433 2886 3050 3436 4113 4556 4776 4804 4770 4754 4756 4633 4527 4430 4310 4178 4002 3834 3666 3622 3614 3524 3420 3313 3197 3113 3015 2914 2805 2734 2653 2472 2221 1937 1689 1359 948 853 700
0 0 0 7 308 2287 2871 3145 3047 2695 2747 3017 3522 3737 3759 3750 3746 3693 3624 3499 3322 3199 2933 2798 3121 3361 3541 4007 4636 4932 5072 4978 4878 4806 4767 4693 4567 4404 4286 4156 4021 3866 3835 3696 3581 3512 3429 3335 3238 3147 3054 2968 2890 2755 2583 2384 2075 1809 1606 1313 1208 1026 729
0 0 0 0 0 61 3321 3620 3350 3204 3047 3350 3620 3738 3747 3780 3839 3804 3732 3610 3477 3420 3292 3315 3984 4060 4310 4786 5081 5151 5140 5011 4872 4788 4722 4639 4510 4355 4202 4088 4106 4012 3919 3758 3628 3508 3401 3321 3258 3185 3103 3013 2920 2746 2477 2235 1979 1776 1547 1456 1366 975 642
677 741 751 1014 698 111 258 3672 3854 3583 3700 3938 3964 3939 3836 3796 3818 3803 3760 3716 3578 3550 3482 3702 4480 4765 5024 5207 5214 5178 5104 4990 4873 4752 4657 4560 4444 4257 4078 4038 4055 3984 3969 3816 3669 3579 3497 3397 3357 3308 3235 3093 2939 2704 2417 2162 1975 1727 1554 1507 1263 1072 985
1346 813 2201 2361 1509 1072 437 108 3120 4208 4274 4441 4270 4052 3908 3854 3853 3770 3730 3698 3596 3605 3617 4394 5064 5272 5269 5239 5211 5124 5033 4923 4800 4717 4593 4440 4222 4041 3948 3909 3939 3992 3988 3897 3782 3669 3557 3466 3376 3276 3187 3038 2853 2683 2535 2334 2123 1839 1654 1364 1086 1033 728
2635 3227 4045 4400 4053 3814 2768 172 987 3750 4580 4627 4441 4159 3976 3954 3873 3774 3728 3653 3596 3633 4179 5374 5432 5298 5192 5155 5064 4980 4880 4802 4738 4603 4438 4238 4004 3756 3727 3633 3590 3792 3916 3896 3817 3689 3575 3452 3359 3221 3090 2942 2807 2682 2569 2326 2038 1916 1598 1315 983 772 471
2622 3047 3773 3732 3834 4207 4409 4935 4179 3915 4400 4625 4504 4235 4185 4173 3974 3918 3886 3800 3674 4280 5428 5473 5344 5191 5079 5017 4958 4871 4769 4744 4680 4608 4434 4152 3866 3453 3216 3038 3167 3436 3614 3640 3662 3626 3483 3329 3202 3087 2968 2811 2700 2645 2529 2182 1888 1599 1389 1009 830 558 553
2490 2651 3573 3767 3760 4043 4194 4618 4212 4106 4413 4729 4701 4397 4576 4437 4218 4173 4123 4124 4624 5403 5461 5357 5241 5106 4978 4833 4720 4630 4488 4350 4204 4098 3883 3689 3319 3041 2846 2809 3087 3383 3559 3600 3568 3472 3379 3231 3120 3002 2868 2737 2610 2423 2279 2089 1762 1446 1214 993 670 630 556
2174 2506 2973 3790 3639 3488 3888 4362 4426 4123 4017 3986 3972 4064 4029 4290 4238 4230 4347 4853 5329 5372 5323 5249 5139 5016 4910 4772 4631 4455 4264 3998 3855 3707 3539 3157 3014 2869 3014 3082 3260 3345 3450 3489 3453 3334 3153 3066 3009 2901 2725 2571 2483 2319 1982 1618 1430 1319 1111 800 785 668 466
1907 2254 2422 3227 3888 3631 3442 3089 3354 3794 3673 3519 3918 3976 4193 4572 4393 4469 4917 5144 5169 5150 5139 5148 5102 4967 4820 4621 4377 4111 3732 3295 3177 3116 3032 2888 2884 3018 3138 3166 3192 3184 3260 3254 3184 3080 2986 2867 2712 2585 2454 2320 2161 1947 1645 1358 1284 1178 995 983 734 522 371
2082 2109 2070 2246 2691 3132 3354 3306 3465 3878 4206 4206 4174 4387 4526 4254 4004 4730 5166 5142 5020 5000 4999 5002 4946 4766 4508 4167 3694 3332 3049 2824 2744 2898 2977 3018 3009 2980 3008 3025 3031 3009 2971 2958 2924 2827 2719 2577 2405 2204 2029 1886 1724 1580 1479 1446 1388 1251 996 829 510 174 0
2040 2136 2240 2236 2435 2715 3079 3464 3572 3864 4091 4093 4133 4271 4269 4034 4319 4864 4866 4836 4874 4824 4790 4501 4416 4158 3934 3499 3305 2956 2810 2737 2766 2724 2797 2819 2832 2838 2841 2836 2852 2836 2811 2775 2742 2666 2506 2269 2073 1942 1828 1722 1612 1526 1474 1443 1403 979 819 557 349 0 0
2063 1950 2244 2505 2561 2915 3058 3366 3652 3842 4037 3881 3937 3895 3967 3956 4373 4080 4435 4300 4130 4407 4243 3787 3726 3530 3410 3020 2765 2465 2602 2682 2667 2667 2643 2625 2611 2651 2596 2606 2556 2427 2366 2325 2297 2217 2081 1976 1868 1803 1724 1622 1602 1604 1554 1468 1166 953 588 97 0 458 36
2472 2490 2474 2623 2738 2820 3010 3283 3569 3757 3951 3957 3729 3834 3914 3717 3355 3211 3556 3484 3370 3465 3480 3426 3339 3051 2808 2582 2520 2547 2604 2628 2668 2626 2566 2536 2510 2486 2397 2306 2188 2188 2128 2022 1974 1870 1786 1747 1752 1723 1706 1627 1594 1517 1390 1121 972 706 184 0 0 0 0
1428 1502 1548 1770 2248 2639 2868 3193 3540 3591 3561 3568 2845 2718 2625 2879 2529 2620 2730 2921 3287 3298 3580 3061 2869 2608 2472 2485 2466 2499 2511 2499 2486 2429 2310 2267 2176 2094 2094 2070 1986 1908 1821 1766 1743 1690 1664 1605 1603 1660 1644 1557 1409 1262 1073 671 506 449 61 269 202 166 0
1312 1402 1386 1373 1361 1267 1727 2048 2320 2533 2618 1971 1942 1953 1913 2010 2036 2200 2405 2676 2610 2839 2816 2673 2514 2441 2434 2352 2399 2482 2506 2433 2366 2189 2057 1884 1798 1692 1707 1709 1720 1701 1675 1680 1652 1585 1500 1411 1363 1286 1161 1033 1076 1076 786 565 518 631 587 513 498 385 138

ECMWFFLT1_con_mucape_048.txt.gz
CAPE
0 0 0 0 0 31 97 83 34 103 293 455 504 616 798 939 1263 1545 1516 1474 1715 1742 1734 1669 1752 1946 1983 1993 1984 1970 1947 1927 1854 1854 1979 2007 1922 1824 1766 1759 1841 1833 1944 2109 2192 2224 2188 2122 2007 1706 1518 1196 889 689 427 330 19 69 135 77 46 249 140
28 18 2 0 0 0 20 84 42 100 330 494 557 687 877 964 1172 1522 1658 1595 1672 1824 1960 1902 1838 1822 1881 1904 1938 1966 1942 1942 1925 1917 1998 2055 2070 1966 1900 1827 1905 1905 1897 1989 2056 2103 2074 2093 1948 1677 1503 1189 1023 758 467 371 66 94 185 145 19 216 144
49 69 49 19 9 0 0 39 81 109 324 508 620 760 946 1028 1162 1450 1706 1742 1712 1787 2034 2110 2049 1911 1867 1849 1873 1958 1984 1968 1989 2035 2064 2077 2141 2155 2068 1955 1951 1954 1923 1967 1978 2037 2041 2020 1861 1678 1440 1193 1084 789 485 279 86 95 231 389 320 97 143
62 75 97 60 40 29 6 42 131 115 314 529 678 795 981 1109 1180 1383 1672 1826 1810 1799 1963 2190 2243 2121 1995 1922 1883 1930 2038 2053 2068 2132 2178 2125 2160 2236 2222 2113 2035 2036 1942 1967 1984 1980 1958 1890 1789 1665 1376 1273 1032 659 532 154 88 86 94 406 436 209 121
66 61 95 171 144 90 87 100 192 168 286 565 662 824 999 1161 1226 1360 1592 1833 1889 1884 1914 2130 2307 2309 2200 2040 1947 1925 2034 2144 2183 2227 2287 2251 2179 2248 2314 2268 2153 2120 1988 1939 1966 1912 1852 1809 1792 1665 1406 1316 935 733 552 217 185 117 90 123 137 75 104
71 52 299 307 178 168 184 194 257 281 319 578 764 838 1003 1206 1288 1375 1528 1817 1975 1973 1974 2082 2244 2381 2362 2244 2087 2008 2006 2151 2272 2334 2383 2399 2307 2260 2341 2382 2292 2203 2077 1974 1972 1893 1865 1786 1764 1651 1454 1179 1052 849 540 411 373 210 142 92 46 40 84
185 368 388 342 257 228 248 302 328 395 383 582 834 915 1050 1236 1372 1449 1544 1750 1977 2073 2089 2137 2232 2340 2420 2403 2325 2239 2158 2184 2306 2422 2462 2486 2457 2359 2351 2420 2379 2303 2199 2075 2016 1936 1876 1835 1744 1628 1427 1271 1193 894 527 441 423 444 281 128 367 21 51
78 340 286 109 208 271 308 413 491 464 498 577 895 1022 1093 1265 1436 1546 1632 1749 1965 2105 2167 2230 2280 2358 2433 2476 2487 2469 2430 2368 2378 2458 2515 2539 2548 2494 2400 2447 2444 2340 2243 2202 2111 2027 1927 1895 1834 1741 1544 1443 1291 893 585 480 461 492 484 454 449 426 305
82 98 93 114 188 428 493 561 644 634 681 757 987 1134 1182 1288 1462 1620 1748 1859 2011 2146 2253 2332 2396 2416 2466 2504 2551 2602 2628 2612 2572 2548 2592 2594 2583 2575 2501 2479 2510 2440 2378 2309 2239 2147 2054 1985 1947 1897 1748 1566 1307 919 663 598 618 371 497 527 505 491 458
90 121 129 147 170 392 472 604 768 782 801 934 1074 1222 1265 1334 1460 1630 1815 2005 2149 2242 2344 2462 2540 2568 2566 2580 2601 2639 2698 2761 2751 2691 2678 2679 2651 2622 2593 2541 2551 2532 2473 2420 2342 2281 2210 2120 2038 1958 1807 1506 1235 957 748 684 708 558 404 484 517 515 518
96 155 308 449 474 476 482 580 812 958 950 1046 1184 1298 1356 1400 1487 1604 1795 2081 2310 2392 2481 2587 2704 2755 2725 2702 2709 2709 2740 2800 2827 2786 2745 2746 2715 2675 2634 2600 2599 2619 2577 2518 2440 2382 2322 2246 2144 2018 1832 1491 1180 979 811 748 737 640 469 438 472 521 528
86 345 494 540 514 455 458 611 787 1026 1080 1100 1269 1393 1462 1480 1536 1611 1728 2000 2345 2560 2643 2736 2854 2936 2890 2841 2820 2819 2815 2842 2857 2835 2784 2756 2753 2713 2673 2648 2601 2631 2662 2616 2542 2478 2421 2334 2228 2132 1940 1596 1210 967 852 790 756 676 517 468 468 500 543
198 60 445 495 481 420 401 544 738 987 1159 1168 1277 1458 1537 1574 1583 1639 1726 1868 2189 2564 2776 2881 2983 3081 3067 2980 2933 2902 2894 2887 2892 2875 2831 2766 2749 2729 2697 2645 2615 2605 2675 2680 2627 2536 2474 2409 2324 2193 2032 1788 1484 1248 1115 1032 971 888 642 481 491 492 522
409 125 419 464 450 422 450 492 704 846 1094 1228 1288 1418 1565 1623 1640 1660 1724 1810 2007 2355 2736 2926 3060 3187 3203 3128 3033 2983 2954 2926 2919 2916 2877 2811 2771 2730 2672 2631 2626 2611 2648 2701 2688 2631 2516 2435 2364 2250 2094 1921 1745 1536 1378 1255 1150 1058 876 548 495 530 557
356 314 328 417 466 492 520 561 681 809 985 1170 1251 1356 1494 1609 1668 1697 1720 1769 1889 2120 2517 2831 3032 3204 3296 3254 3163 3070 3006 2967 2955 2928 2893 2837 2781 2718 2645 2594 2611 2617 2612 2671 2726 2703 2634 2532 2410 2310 2188 2046 1895 1726 1568 1464 1354 1233 1063 786 549 550 604
209 283 326 326 372 457 506 517 599 803 967 1111 1208 1286 1419 1536 1623 1680 1707 1732 1822 1979 2255 2608 2904 3117 3282 3338 3290 3186 3082 3037 3000 2962 2915 2858 2767 2696 2642 2584 2581 2598 2593 2623 2710 2750 2726 2648 2539 2421 2293 2139 2013 1849 1709 1632 1558 1450 1282 1036 818 638 638
116 242 219 247 256 300 361 538 662 767 908 1072 1194 1251 1321 1461 1590 1656 1689 1709 1744 1886 2074 2366 2716 2974 3180 3326 3347 3310 3201 3116 3066 2988 2949 2881 2801 2724 2652 2588 2566 2560 2568 2598 2658 2726 2747 2725 2653 2553 2433 2294 2140 1972 1832 1773 1717 1640 1474 1295 1098 997 767
237 247 279 301 344 398 441 572 725 792 847 1015 1193 1227 1244 1346 1525 1640 1710 1728 1735 1787 1906 2184 2504 2796 3026 3200 3304 3358 3324 3240 3156 3069 3002 2929 2880 2828 2759 2673 2608 2564 2532 2553 2604 2673 2748 2726 2694 2639 2555 2459 2346 2201 2050 1924 1833 1736 1637 1453 1396 1208 925
436 387 368 400 471 515 544 638 782 938 1040 1160 1242 1292 1282 1259 1346 1548 1701 1761 1783 1754 1750 1980 2315 2638 2885 3071 3265 3386 3382 3326 3248 3182 3081 3000 2953 2917 2885 2812 2736 2655 2582 2552 2596 2666 2726 2743 2734 2709 2648 2573 2510 2410 2308 2167 2035 1892 1736 1589 1343 1366 1127
600 595 537 543 592 605 630 740 847 994 1132 1319 1442 1423 1441 1395 1412 1539 1682 1794 1836 1796 1769 1812 2069 2467 2789 3030 3289 3445 3455 3408 3328 3243 3166 3094 3036 2999 2983 2928 2870 2797 2727 2661 2644 2685 2747 2774 2772 2743 2704 2662 2607 2528 2439 2351 2242 2130 2020 1894 1745 1683 1190
1072 681 669 698 714 684 716 794 891 976 1078 1238 1585 1718 1618 1540 1530 1612 1702 1812 1876 1893 1903 1864 1950 2254 2673 2995 3317 3521 3551 3501 3432 3351 3276 3189 3114 3065 3068 3035 2989 2951 2901 2839 2786 2773 2806 2839 2845 2827 2806 2747 2692 2624 2553 2482 2402 2304 2231 2188 2169 2019 1414
1572 1131 1088 1092 916 848 785 788 860 945 1060 1249 1625 1969 1888 1781 1738 1751 1770 1789 1890 1964 1987 1995 1993 2175 2554 2921 3239 3544 3646 3592 3518 3473 3408 3333 3252 3159 3144 3140 3108 3081 3060 3004 2960 2929 2908 2882 2888 2912 2888 2864 2807 2734 2669 2605 2518 2566 2620 2612 2537 2300 1674
1475 1728 1373 1366 1448 1423 1335 1029 797 820 1143 1535 1682 1953 2149 2086 1988 1963 2004 1992 2012 2090 2120 2098 2078 2161 2450 2799 3083 3434 3675 3677 3606 3560 3524 3482 3407 3281 3196 3222 3232 3208 3197 3150 3106 3072 3044 3035 3021 3000 2989 2962 2905 2867 2825 2803 2829 2900 2938 2908 2776 2566 1870
1683 587 310 537 1426 1573 1729 1912 1849 1591 1513 1898 2267 2166 2177 2202 2160 2156 2211 2264 2266 2285 2320 2274 2238 2238 2375 2655 2916 3222 3592 3750 3718 3661 3614 3570 3497 3389 3272 3282 3320 3333 3304 3281 3264 3232 3220 3190 3172 3165 3155 3133 3098 3083 3104 3115 3151 3190 3189 3094 2851 2640 2350
2881 2828 1875 773 29 32 878 1556 1997 2165 2101 2016 2392 2906 2855 2726 2483 2312 2332 2420 2466 2462 2479 2461 2436 2391 2382 2543 2774 3022 3457 3767 3812 3760 3681 3606 3550 3440 3320 3335 3398 3409 3402 3412 3376 3353 3337 3338 3341 3339 3327 3323 3334 3363 3351 3394 3398 3393 3316 3169 2913 2696 2352
2786 3104 3210 3103 1750 918 659 820 1562 1990 2327 2294 2201 2598 3291 3209 2967 2697 2505 2468 2495 2516 2532 2568 2599 2598 2543 2516 2621 2879 3328 3718 3824 3815 3752 3673 3580 3499 3402 3436 3464 3464 3479 3501 3500 3486 3472 3450 3468 3465 3473 3462 3517 3558 3574 3543 3518 3420 3232 3011 2817 2567 2147
3009 3063 2819 2790 2936 2948 1617 1026 1372 2055 2276 2371 2387 2288 2744 3360 3327 3092 2853 2688 2580 2557 2577 2600 2643 2670 2651 2640 2644 2797 3274 3662 3835 3876 3843 3752 3669 3614 3534 3568 3575 3573 3570 3599 3635 3626 3584 3567 3606 3626 3644 3653 3644 3608 3550 3490 3374 3198 3088 2969 2720 2200 1880
2726 3108 3052 3090 3219 3463 3151 2443 2118 1594 2350 2627 2398 2450 2476 2876 3329 3296 3162 2969 2792 2715 2685 2678 2643 2612 2625 2669 2725 2964 3429 3773 3918 3948 3958 3907 3824 3766 3740 3720 3698 3700 3722 3760 3775 3740 3707 3693 3690 3666 3634 3573 3509 3414 3352 3231 3136 3118 3021 2903 2545 2129 1798
1971 2573 3188 3213 3224 3704 3479 3697 3425 3033 2993 3209 3482 3428 3245 3041 3099 3307 3374 3194 3032 2942 2835 2742 2694 2669 2659 2781 3100 3459 3792 3969 4035 4062 4063 4035 3947 3902 3902 3889 3859 3884 3899 3883 3887 3864 3824 3824 3788 3723 3657 3568 3454 3335 3218 3100 3082 3107 3019 2683 2295 1906 1722
1682 2046 2343 3290 3483 3454 3800 3989 3846 3877 3921 3817 3805 3828 3749 3479 3284 3228 3258 3339 3315 3248 3149 3195 3407 3462 3494 3492 3712 3926 4068 4126 4123 4142 4140 4094 4042 4028 4029 4031 4063 4071 4046 4011 4004 3990 3964 3908 3840 3749 3630 3501 3332 3209 3193 3147 3201 3206 2875 2476 2084 1834 1422
1566 1632 1936 2633 3488 3527 3393 3750 3978 3886 3795 3959 4025 4017 4029 3916 3694 3516 3443 3384 3569 3785 4022 4189 4210 4144 4023 3980 4053 4110 4169 4212 4222 4225 4210 4169 4160 4126 4123 4211 4230 4210 4169 4147 4116 4068 3973 3894 3769 3688 3536 3373 3337 3325 3297 3259 3053 2859 2382 2103 1899 1396 1202
1566 1625 1622 1996 2765 3509 3560 3349 3265 3650 3798 3768 3922 4146 4155 4156 4020 3920 3696 3964 4231 4399 4457 4450 4420 4312 4219 4164 4158 4163 4180 4261 4327 4316 4291 4272 4223 4224 4285 4321 4260 4229 4218 4146 4090 3971 3848 3754 3621 3516 3398 3385 3379 3356 3212 2936 2594 2296 2117 1883 1524 1148 1019
1732 1738 1736 1849 2050 2524 3202 3348 3265 3059 2970 3055 3540 3955 4272 4274 4276 4212 4128 4330 4541 4589 4556 4512 4459 4367 4326 4336 4302 4258 4245 4283 4346 4380 4326 4260 4327 4405 4385 4280 4196 4169 4114 3932 3750 3630 3555 3494 3369 3276 3236 3214 3149 3034 2872 2598 2314 2106 1856 1613 1248 1063 900
1770 1771 1820 1924 2110 2316 2652 2877 2934 2846 2689 2552 2836 3207 3579 3985 4269 4318 4271 4175 4382 4626 4630 4560 4474 4475 4442 4414 4402 4320 4268 4330 4428 4462 4431 4469 4438 4350 4242 4111 4067 3874 3615 3508 3502 3482 3436 3452 3418 3230 3106 2993 2892 2756 2581 2412 2242 1958 1632 1331 1040 946 842
1922 2020 2152 2214 2204 2200 2338 2566 2621 2682 2696 2596 2522 2678 2994 3394 3486 3681 3954 4045 3973 4217 4335 4459 4559 4414 4319 4311 4037 4135 4156 4252 4467 4471 4439 4247 3974 4026 4047 3962 3696 3038 3106 3221 3245 3263 3289 3296 3234 3152 3034 2879 2695 2503 2374 2286 2094 1837 1401 1137 1117 1031 656
1764 2033 2324 2481 2487 2364 2295 2443 2550 2610 2701 2566 2452 2556 2758 2979 3290 3248 3299 3393 3664 3782 4060 4121 4192 4254 4039 3678 3499 3628 3694 3683 4042 3924 3957 3876 3795 3749 3482 2990 2730 2870 3032 3133 3192 3220 3190 3126 3027 2923 2782 2553 2367 2208 2141 1968 1774 1422 1248 1194 1012 598 262
1238 1365 1528 1869 2094 2274 2380 2507 2661 2832 2961 2924 2714 2650 2609 2659 2729 3145 3380 3351 3693 4001 4041 3658 3388 3124 3044 2956 2430 1922 2146 2546 3055 3243 3298 3226 3110 2863 2605 2654 2788 2859 2947 3059 3080 3070 2950 2766 2616 2472 2318 2097 1934 1757 1568 1402 1312 1193 1156 1001 610 402 0
1198 1199 1187 1180 1232 1470 1790 1892 2294 2453 2504 2716 2811 2637 2581 2613 2543 2636 3064 3356 3752 3666 3658 3577 2970 2093 1500 1951 1818 1769 2004 1936 2381 2421 2480 2270 2284 2382 2504 2560 2618 2621 2604 2554 2574 2461 2281 2106 1899 1766 1695 1612 1534 1490 1409 1324 1146 898 751 628 342 0 0